     2              OBSERVATION DATA    GPS                 RINEX VERSION / TYPE
teqc 1999Jul19 19991123 02:55:43UTC                         PGM / RUN BY / DATE
                                                            COMMENT
Original Marker Name: 0305                                  COMMENT
Campaign Name: HPGN 1991                                    COMMENT
4-Character Station Name: 0305                              COMMENT
6-Character Antenna Code: TRMSST                            COMMENT
Vertical Measurement Point: TGP                             COMMENT
Vertical Offset to Rinex Ref. Point: 0.0629                 COMMENT
Radial Measurement Point: NGP                               COMMENT
Radial Offset to Rinex Ref. Point: 0.2334                   COMMENT
Antenna Height from Field Measurement: 1.7597 m             COMMENT
Original XYZ: -2570355.0765 -4229623.2887 4009820.8208      COMMENT
New XYZ position is based on association with SCEC monument COMMENT
E1O4M6B0+0011. Position of that monument is believed to be  COMMENT
valid to within 1 m horizontally; vertical accuracy         COMMENT
should be no worse than 3-times this value.                 COMMENT
                                                            COMMENT
Revised Rinex header created by UCSD GPS archive for        COMMENT
GSAC on 17-Mar-2000 (2000:077) 23:05:31 GMT                 COMMENT
For assistance contact dagnew@ucsd.edu or hjohnson@ucsd.edu COMMENT
                                                            COMMENT
HPGN CA 03 05                                               MARKER NAME
0305                                                        MARKER NUMBER
-Unknown- CALIF DEPT TRANSPORTATION                         OBSERVER / AGENCY
485 TRIMBLE 4000 SST NP 4.30 / SP 4.20                      REC # / TYPE / VERS
16 TR 4000SST L1/L2 GEO                                     ANT # / TYPE
 -2570356.9388 -4229621.1487  4009812.9491                  APPROX POSITION XYZ
        1.6813        0.0000        0.0000                  ANTENNA: DELTA H/E/N
     1     1     0                                          WAVELENGTH FACT L1/2
     5    C1    L1    L2    S1    S2                        # / TYPES OF OBSERV
     0                                                      INTERVAL
  1991     5    23    21    33   45.000000                  TIME OF FIRST OBS
  1991     5    23    23    43   60.000000                  TIME OF LAST OBS
                                                            END OF HEADER
 91  5 23 21 33 45.0000000  0  4G 2G 6G13G15
  20868100.281       11603.885 7                        27.750
  20526401.922          -0.79517                        21.750
  21841646.742          -0.47316                        16.000
  23774444.711          -0.66815                         9.250
 91  5 23 21 34  0.0000000  0  4G 2G 6G13G15
  20868565.578       14068.719 7        -0.07933        26.750           3.219
  20523897.258      -13171.667 7        -0.08432        22.000           2.281
  21830543.430      -58374.690 6                        16.500
  23772317.859      -11159.630 5                         9.750
 91  5 23 21 34 15.0000000  0  4G 2G 6G13G15
  20869047.383       16580.320 7      1957.00123        27.750           3.250
  20521406.383      -26252.271 7    -10192.75322        21.500           2.219
  21819451.641     -116657.369 6        -0.04931        17.500           0.719
  23770223.250      -22188.790 5        -0.41431         9.500           0.656
 91  5 23 21 34 30.0000000  0  4G 2G 6G13G15
  20869533.773       19145.551 7      3955.87623        27.000           3.188
  20518937.398      -39235.538 7    -20309.58922        21.750           2.188
  21808379.078     -174841.340 6    -45338.17921        18.000           0.625
  23768152.273      -33081.063 5     -8487.90221        10.250           0.625
 91  5 23 21 34 45.0000000  0  4G 2G 6G13G15
  20870029.586       21754.767 7      5989.01723        27.250           3.156
  20516484.359      -52130.798 7    -30357.84522        22.500           2.219
  21797323.078     -232935.765 6    -90606.54021        16.000           0.719
  23766098.656      -43845.848 5    -16876.05921        10.000           0.656
 91  5 23 21 35  0.0000000  0  4G 2G 6G13G15
  20870535.297       24407.912 7      8056.39723        27.250           3.156
  20514044.695      -64937.777 7    -40337.30722        21.750           2.219
  21786284.539     -290940.352 6   -135804.87221        17.000           0.813
  23764078.727      -54483.244 5    -25164.95121        10.500           0.531
 91  5 23 21 35 15.0000000  0  4G 2G 6G13G15
  20871049.617       27110.408 7     10162.22223        27.000           3.188
  20511628.125      -77651.038 7    -50243.74422        22.250           2.219
  21775266.328     -348849.233 6   -180928.64121        17.750           0.844
  23762080.445      -64987.728 5    -33350.28421        10.750           0.625
 91  5 23 21 35 30.0000000  0  4G 2G 6G13G15
  20871571.148       29855.279 7     12301.07523        27.500           3.188
  20509222.508      -90277.415 7    -60082.47722        22.000           2.219
  21764261.156     -406669.346 6   -225983.24021        16.500           0.875
  23760107.813      -75366.172 5    -41437.38721        10.750           0.625
 91  5 23 21 35 45.0000000  0  4G 2G 6G13G15
  20872103.047       32644.477 7     14474.46823        27.750           3.094
  20506837.242     -102814.377 7    -69851.53822        21.500           2.094
  21753276.695     -464398.073 6   -270966.63221        17.000           0.844
  23758153.242      -85616.647 5    -49424.79021        10.500           0.500
 91  5 23 21 36  0.0000000  0  4G 2G 6G13G15
  20872646.281       35486.012 7     16688.63723        27.250           3.219
  20504470.953     -115253.943 7    -79544.71122        21.500           2.281
  21742312.414     -522027.146 6   -315872.35021        17.750           0.719
  23756235.086      -95730.769 5    -57305.92521        11.250           0.563
 91  5 23 21 36 15.0000000  0  4G 2G 6G13G15
  20873192.320       38371.380 7     18936.96623        26.750           3.156
  20502121.188     -127604.507 7    -89168.52622        22.000           2.094
  21731361.016     -579564.946 6   -360706.97121        16.750           0.781
  23754329.727     -105717.002 5    -65087.40321        10.750           0.563
 91  5 23 21 36 30.0000000  0  4G 2G 6G13G15
  20873748.141       41294.227 7     21214.49823        26.750           3.188
  20499786.797     -139872.095 7    -98727.68722        22.250           2.188
  21720432.422     -637017.178 6   -405474.90021        18.250           0.719
  23752455.242     -115581.659 5    -72774.18621        10.250           0.406
 91  5 23 21 36 45.0000000  0  4G 2G 6G13G15
  20874312.969       44266.562 7     23530.58523        27.000           3.156
  20497470.281     -152044.453 7   -108212.65022        22.000           2.094
  21709517.727     -694371.697 6   -450166.70921        18.250           0.875
  23750602.117     -125312.605 5    -80356.74521         9.750           0.406
 91  5 23 21 37  0.0000000  0  4G 2G 6G13G15
  20874888.164       47282.007 7     25880.28523        27.000           3.031
  20495170.672     -164127.521 7   -117628.02522        22.500           2.125
  21698618.813     -751634.303 6   -494786.88421        17.500           0.750
  23748770.609     -134916.171 5    -87840.05121         9.750           0.531
 91  5 23 21 37 15.0000000  0  4G 2G 6G13G15
  20875469.164       50346.116 7     28267.89023        26.750           3.031
  20492887.703     -176115.812 7   -126969.55622        21.750           2.125
  21687742.070     -808799.168 6   -539330.89321        18.250           0.781
  23746975.352     -144386.759 5    -95219.75821        10.250           0.531
 91  5 23 21 37 30.0000000  0  4G 2G 6G13G15
  20876062.781       53453.874 7     30689.50923        27.500           3.063
  20490625.477     -188014.025 7   -136240.89122        21.500           2.250
  21676879.531     -865871.170 6   -583802.53821        17.250           0.844
  23745189.516     -153729.250 5   -102499.61021        10.000           0.563
 91  5 23 21 37 45.0000000  0  4G 2G 6G13G15
  20876665.805       56610.261 7     33149.01223        27.500           3.031
  20488378.039     -199817.147 7   -145438.12622        21.750           2.281
  21666040.250     -922844.868 6   -628197.59321        17.000           0.719
  23743443.414     -162938.456 5   -109675.63921        10.750           0.469
 91  5 23 21 38  0.0000000  0  4G 2G 6G13G15
  20877221.375       59538.300 7     35430.58823        26.750           3.031
  20486097.203     -211801.671 7   -154776.72022        21.250           2.156
  21655164.031     -979996.661 6   -672731.42221        17.750           0.875
  23741661.336     -172291.269 5   -116963.54421        11.250           0.531
 91  5 23 21 38 15.0000000  0  4G 2G 6G13G15
  20877779.219       62462.458 7     37709.14523        27.750           3.000
  20483828.242     -223742.941 7   -164081.60822        21.500           2.219
  21644295.734    -1037101.921 6   -717228.98221        17.000           0.875
  23739892.820     -181563.490 5   -124188.67621        10.250           0.594
 91  5 23 21 38 30.0000000  0  4G 2G 6G13G15
  20878342.570       65437.051 7     40026.99823        27.250           3.031
  20481572.805     -235586.571 7   -173310.41222        21.500           2.219
  21633448.961    -1094105.693 6   -761647.47621        17.000           0.688
  23738155.289     -190700.498 5   -131308.44821        10.500           0.438
 91  5 23 21 38 45.0000000  0  4G 2G 6G13G15
  20878920.844       68464.400 7     42385.96723        27.500           2.906
  20479337.031     -247330.118 7   -182461.22522        20.750           2.219
  21622618.461    -1151005.635 6   -805985.05021        17.750           0.844
  23736450.625     -199699.915 5   -138320.98921        11.000           0.625
 91  5 23 21 39  0.0000000  0  4G 2G 6G13G15
  20879504.586       71539.418 7     44782.06623        27.000           2.969
  20477121.320     -258978.152 7   -191537.61822        21.500           2.313
  21611811.844    -1207806.659 6   -850245.56821        17.250           0.875
  23734756.445     -208566.370 5   -145229.96421        10.000           0.438
 91  5 23 21 39 15.0000000  0  4G 2G 6G13G15
  20880099.055       74659.158 7     47213.02223        27.750           3.000
  20474922.930     -270533.798 7   -200542.01822        21.750           2.250
  21601017.805    -1264511.383 6   -894431.01321        16.250           0.875
  23733096.188     -217303.103 5   -152037.77421        10.000           0.438
 91  5 23 21 39 30.0000000  0  4G 2G 6G13G15
  20880698.930       77822.536 7     49677.99223        27.500           2.938
  20472741.367     -281997.517 7   -209474.79022        21.000           2.188
  21590250.867    -1321120.296 6   -938541.81921        17.250           0.844
  23731460.047     -225910.914 5   -158745.19621        10.750           0.438
 91  5 23 21 39 45.0000000  0  4G 2G 6G13G15
  20881311.469       81032.989 7     52179.62723        27.500           2.938
  20470578.297     -293365.697 7   -218333.11122        21.250           2.375
  21579498.492    -1377629.699 6   -982575.08621        18.000           0.750
  23729841.055     -234386.601 5   -165349.66221         9.750           0.406
 91  5 23 21 40  0.0000000  0  4G 2G 6G13G15
  20881930.336       84289.979 8     54717.52723        28.000           2.969
  20468431.203     -304638.966 7   -227117.48122        20.750           2.344
  21568760.648    -1434039.729 6  -1026530.93621        16.750           0.906
  23728255.344     -242730.548 5   -171851.45421        10.500           0.406
 91  5 23 21 40 15.0000000  0  4G 2G 6G13G15
  20882557.891       87598.118 7     57295.28423        27.500           2.875
  20466305.773     -315812.474 7   -235824.11722        21.250           2.219
  21558046.742    -1490345.678 6  -1070405.64521        17.750           0.875
  23726688.953     -250937.913 5   -178246.83021         9.750           0.438
 91  5 23 21 40 30.0000000  0  4G 2G 6G13G15
  20883199.391       90957.968 8     59913.34223        28.000           3.094
  20464197.398     -326885.057 7   -244452.10222        20.750           2.344
  21547351.016    -1546546.504 6  -1114198.47021        17.500           0.844
  23725159.563     -259007.894 5   -184535.14621        11.000           0.563
 91  5 23 21 40 45.0000000  0  4G 2G 6G13G15
  20883846.797       94361.552 7     62565.47123        27.750           3.000
  20462109.969     -337864.827 7   -253007.77122        21.000           2.313
  21536672.242    -1602649.850 6  -1157915.33521        16.250           0.906
  23723651.172     -266948.566 6   -190722.71121        12.250           0.563
 91  5 23 21 41  0.0000000  0  4G 2G 6G13G15
  20884503.133       97813.633 8     65255.38123        28.000           2.969
  20460040.234     -348746.916 7   -261487.32122        21.000           2.188
  21526018.906    -1658650.759 6  -1201552.36521        17.250           0.875
  23722160.047     -274755.149 5   -196805.77421        11.500           0.594
 91  5 23 21 41 15.0000000  0  4G 2G 6G13G15
  20885169.547      101309.768 7     67979.63923        27.750           3.000
  20457985.250     -359535.333 7   -269893.88922        21.250           2.250
  21515379.172    -1714552.997 6  -1245112.52921        17.000           0.906
  23720700.930     -282431.975 5   -202787.74621        11.250           0.500
 91  5 23 21 41 30.0000000  0  4G 2G 6G13G15
  20885842.273      104848.177 8     70736.82323        28.500           3.000
  20455950.711     -370231.673 7   -278228.70022        21.000           2.281
  21504759.883    -1770358.261 6  -1288597.10821        16.500           1.063
  23719265.031     -289980.832 5   -208669.99921        11.250           0.531
 91  5 23 21 41 45.0000000  0  4G 2G 6G13G15
  20886524.188      108429.277 8     73527.28223        28.500           3.156
  20453931.797     -380835.364 7   -286491.32322        20.750           2.156
  21494161.938    -1826065.767 6  -1332005.52021        17.250           0.844
  23717850.359     -297401.245 5   -214452.14521         9.500           0.594
 91  5 23 21 42  0.0000000  0  4G 2G 6G13G15
  20887215.555      112056.538 8     76353.70223        28.500           3.125
  20451934.461     -391342.872 7   -294678.99522        21.250           2.219
  21483580.430    -1881671.778 6  -1375334.85321        17.750           0.906
  23716462.984     -304689.514 5   -220131.36421         9.750           0.531
 91  5 23 21 42 15.0000000  0  4G 2G 6G13G15
  20887914.734      115727.600 8     79214.25923        28.750           3.094
  20449952.906     -401756.080 7   -302793.19222        21.000           2.250
  21473015.820    -1937178.161 6  -1418586.55621        16.750           1.063
  23715106.898     -311847.916 5   -225709.35321        11.000           0.656
 91  5 23 21 42 30.0000000  0  4G 2G 6G13G15
  20888619.922      119446.417 8     82112.02023        28.000           3.156
  20447988.313     -412070.938 7   -310830.74722        21.250           2.281
  21462472.945    -1992580.993 6  -1461757.54521        17.250           1.000
  23713765.242     -318872.557 5   -231183.13421        10.250           0.688
 91  5 23 21 42 45.0000000  0  4G 2G 6G13G15
  20889335.914      123204.247 7     85040.18423        27.500           3.188
  20446043.398     -422295.894 7   -318798.25122        21.250           2.219
  21451949.117    -2047888.151 6  -1504854.00821        17.250           0.844
  23712455.094     -325772.292 5   -236559.59221        11.000           0.625
 91  5 23 21 43  0.0000000  0  4G 2G 6G13G15
  20890061.570      127007.395 8     88003.66323        28.000           3.250
  20444113.867     -432424.695 7   -326690.82922        21.000           2.250
  21441444.789    -2103093.297 6  -1547870.97121        17.750           0.875
  23711165.273     -332540.763 5   -241833.74621        10.000           0.563
 91  5 23 21 43 14.9990000  0  4G 2G 6G13G15
  20890793.276      130856.498 8     91002.95023        28.250           3.188
  20442204.855     -442455.464 7   -334507.01822        20.500           2.344
  21430960.776    -2158191.670 6  -1590804.74921        17.750           1.000
  23709903.487     -339176.300 5   -247004.32521        10.250           0.625
 91  5 23 21 43 29.9990000  0  4G 2G 6G13G15
  20891532.097      134752.610 7     94038.86523        27.500           3.156
  20440316.003     -452388.670 7   -342247.18722        21.250           2.281
  21420491.230    -2213189.582 6  -1633660.21921        17.000           0.875
  23708661.980     -345679.456 5   -252071.74721        10.250           0.531
 91  5 23 21 43 44.9990000  0  4G 2G 6G13G15
  20892286.839      138702.509 7     97116.69623        27.750           3.188
  20438446.995     -462216.731 7   -349905.42322        21.250           2.281
  21410047.855    -2268076.299 6  -1676429.06921        17.250           1.000
  23707460.198     -352042.755 5   -257030.20121        10.500           0.594
 91  5 23 21 43 59.9990000  0  4G 2G 6G13G15
  20893047.144      142694.633 8    100227.42923        28.000           3.188
  20436594.573     -471950.604 7   -357490.26722        21.250           2.375
  21399622.761    -2322862.734 6  -1719119.76321        17.750           0.969
  23706270.175     -358277.386 5   -261888.38821        10.000           0.594
 91  5 23 21 44 14.9990000  0  4G 2G 6G13G15
  20893815.292      146733.328 7    103374.45123        27.750           3.156
  20434761.276     -481585.833 7   -364998.24522        21.000           2.406
  21389218.417    -2377544.100 6  -1761728.59321        17.750           1.031
  23705104.706     -364378.905 5   -266642.85821         9.250           0.656
 91  5 23 21 44 29.9990000  0  4G 2G 6G13G15
  20894589.159      150811.282 7    106552.05723        27.500           3.156
  20432944.909     -491129.783 7   -372435.09722        21.000           2.313
  21378829.987    -2432127.857 6  -1804261.35521        17.500           0.906
  23703971.144     -370354.939 5   -271299.53621        10.000           0.563
 91  5 23 21 44 44.9990000  0  4G 2G 6G13G15
  20895373.065      154933.298 7    109764.00523        26.750           3.156
  20431146.159     -500577.251 7   -379796.76222        21.250           2.406
  21368462.409    -2486608.582 6  -1846713.83721        18.000           1.063
  23702861.097     -376200.325 5   -275854.43321        10.250           0.625
 91  5 23 21 44 59.9990000  0  4G 2G 6G13G15
  20896166.706      159093.158 7    113005.43423        27.500           3.125
  20429366.987     -509934.375 7   -387088.03722        20.500           2.344
  21358116.565    -2540992.262 6  -1889090.69621        18.750           0.969
  23701763.300     -381921.374 5   -280312.41521         9.750           0.688
 91  5 23 21 45 14.9990000  0  4G 2G 6G13G15
  20896963.448      163293.558 7    116278.45623        27.000           3.219
  20427603.003     -519198.301 7   -394306.68722        21.000           2.344
  21347785.534    -2595275.929 6  -1931389.63321        18.500           0.875
  23700703.042     -387515.331 5   -284671.39221        10.250           0.625
 91  5 23 21 45 29.9990000  0  4G 2G 6G13G15
  20897772.136      167538.177 7    119585.93523        26.750           3.125
  20425860.394     -528364.958 7   -401449.54222        20.500           2.406
  21337473.917    -2649455.236 6  -1973607.25221        18.500           1.031
  23699668.198     -392978.473 5   -288928.42421        10.500           0.625
 91  5 23 21 45 44.9990000  0  4G 2G 6G13G15
  20898586.440      171827.709 7    122928.41023        26.500           3.125
  20424133.472     -537433.502 7   -408515.94522        21.000           2.375
  21327183.933    -2703529.762 6  -2015743.20421        19.000           1.031
  23698649.956     -398309.883 5   -293082.80121        10.250           0.594
 91  5 23 21 45 59.9990000  0  4G 2G 6G13G15
  20899414.792      176161.796 7    126305.60823        27.000           3.031
  20422426.753     -546404.243 7   -415506.13822        20.500           2.344
  21316913.105    -2757499.464 6  -2057797.50021        19.250           1.063
  23697662.870     -403510.020 5   -297134.88621        10.500           0.594
 91  5 23 21 46 14.9990000  0  4G 2G 6G13G15
  20900245.394      180539.736 7    129716.97723        26.500           3.250
  20420737.987     -555277.720 7   -422420.54422        21.000           2.469
  21306665.573    -2811364.751 6  -2099770.42121        18.750           1.094
  23696695.722     -408579.940 5   -301085.50921        10.750           0.531
 91  5 23 21 46 29.9990000  0  4G 2G 6G13G15
  20901086.862      184956.937 7    133158.93823        27.000           3.063
  20419066.675     -564058.275 7   -429262.54022        20.500           2.375
  21296434.894    -2865129.675 6  -2141665.13921        19.500           1.031
  23695754.815     -413524.130 5   -304938.17821        10.000           0.500
 91  5 23 21 46 44.9990000  0  4G 2G 6G13G15
  20901934.620      189411.752 7    136630.20323        27.000           3.156
  20417413.167     -572747.298 7   -436033.21222        20.500           2.406
  21286222.315    -2918795.772 6  -2183482.85621        19.000           1.219
  23694838.761     -418344.069 5   -308693.98621        10.500           0.625
 91  5 23 21 46 59.9990000  0  4G 2G 6G13G15
  20902791.597      193911.581 7    140136.54723        27.250           3.281
  20415778.245     -581337.148 7   -442726.60722        21.000           2.313
  21276027.175    -2972355.134 6  -2225217.38921        18.000           0.969
  23693942.714     -423031.950 5   -312346.93521         9.750           0.594
 91  5 23 21 47 14.9990000  0  4G 2G 6G13G15
  20903656.394      198449.405 7    143672.50023        26.500           3.000
  20414161.315     -589834.805 7   -449348.16522        21.000           2.469
  21265857.698    -3025814.682 6  -2266874.15821        19.500           1.188
  23693082.105     -427595.028 5   -315902.60721        11.000           0.563
 91  5 23 21 47 29.9990000  0  4G 2G 6G13G15
  20904527.105      203026.345 7    147238.92923        27.250           3.156
  20412562.034     -598238.855 7   -455896.78122        21.000           2.469
  21255703.019    -3079172.885 6  -2308451.94921        18.500           1.156
  23692232.026     -432032.014 5   -319360.03621        10.250           0.500
 91  5 23 21 47 44.9990000  0  4G 2G 6G13G15
  20905408.698      207652.016 7    150843.33523        27.500           3.313
  20410981.722     -606539.611 7   -462364.91222        20.500           2.344
  21245570.253    -3132419.736 6  -2349942.97221        19.000           1.188
  23691413.089     -436333.491 5   -322711.88121         9.750           0.469
 91  5 23 21 47 59.9990000  0  4G 2G 6G13G15
  20906294.706      212323.115 7    154483.13323        26.750           3.219
  20409421.292     -614740.306 7   -468755.07322        21.000           2.375
  21235455.042    -3185558.474 6  -2391349.77521        17.750           1.063
  23690623.862     -440503.081 5   -325960.93921        11.750           0.438
 91  5 23 21 48 14.9990000  0  4G 2G 6G13G15
  20907191.003      217038.466 7    158157.41223        26.750           3.313
  20407882.339     -622841.847 7   -475067.97122        22.000           2.344
  21225365.011    -3238589.841 6  -2432672.88421        18.250           1.156
  23689853.065     -444541.584 5   -329107.88321        10.000           0.438
 91  5 23 21 48 29.9990000  0  4G 2G 6G13G15
  20908098.065      221796.767 7    161865.16923        26.750           3.188
  20406357.956     -630845.132 7   -481304.29822        21.250           2.375
  21215295.917    -3291514.653 6  -2473912.97021        19.250           1.063
  23689108.183     -448450.334 5   -332153.67921        10.500           0.531
 91  5 23 21 48 44.9990000  0  4G 2G 6G13G15
  20909011.026      226597.469 7    165605.96023        27.000           3.188
  20404854.378     -638750.682 7   -487464.47822        21.250           2.313
  21205244.089    -3344333.239 6  -2515070.27821        18.500           1.063
  23688389.394     -452229.616 5   -335098.62621        10.250           0.250
 91  5 23 21 48 59.9990000  0  4G 2G 6G13G15
  20909932.394      231440.152 7    169379.46623        26.500           3.281
  20403366.933     -646558.768 7   -493548.71222        21.500           2.344
  21195211.394    -3397045.821 6  -2556145.01221        17.750           1.156
  23687695.261     -455880.237 5   -337943.29121        11.250           0.313
 91  5 23 21 49 14.9990000  0  4G 2G 6G13G15
  20910862.065      236327.215 7    173187.54823        27.000           3.406
  20401898.589     -654266.705 7   -499554.90522        20.500           2.344
  21185202.151    -3449649.708 6  -2597135.02121        18.250           1.031
  23687021.987     -459399.573 5   -340685.67221        10.250           0.469
 91  5 23 21 49 29.9990000  0  4G 2G 6G13G15
  20911800.448      241253.252 7    177026.00523        26.250           3.250
  20400452.675     -661879.735 7   -505487.14522        21.500           2.250
  21175210.597    -3502150.112 6  -2638044.40121        18.250           1.031
  23686377.651     -462793.218 5   -343330.11721        10.500           0.469
 91  5 23 21 49 44.9990000  0  4G 2G 6G13G15
  20912747.620      246225.134 7    180900.18623        27.000           3.344
  20399021.550     -669390.917 7   -511340.01522        21.250           2.219
  21165242.167    -3554539.992 6  -2678867.66621        18.250           1.125
  23685764.534     -466053.992 5   -345871.02921        10.500           0.594
 91  5 23 21 49 59.9990000  0  4G 2G 6G13G15
  20913700.815      251238.805 7    184806.92623        26.750           3.250
  20397610.847     -676804.128 7   -517116.55222        21.250           2.219
  21155291.730    -3606822.858 6  -2719607.54021        17.750           1.063
  23685170.128     -469185.946 5   -348311.55521        11.000           0.438
 91  5 23 21 50 14.9990000  0  4G 2G 6G13G15
  20914663.105      256297.049 7    188748.40023        26.500           3.344
  20396221.776     -684116.172 7   -522814.25622        21.500           2.250
  21145365.425    -3658995.549 6  -2760261.55921        18.750           1.156
  23684595.112     -472186.356 5   -350649.60821        11.000           0.469
 91  5 23 21 50 29.9990000  0  4G 2G 6G13G15
  20915633.362      261401.210 7    192725.65223        26.000           3.406
  20394848.940     -691325.877 7   -528432.21722        21.000           2.313
  21135457.636    -3711056.627 6  -2800828.60321        18.750           1.125
  23684044.261     -475053.847 5   -352884.03721        10.500           0.438
 91  5 23 21 50 44.9990000  0  4G 2G 6G13G15
  20916611.667      266543.519 7    196732.62024        26.250           3.500
  20393496.433     -698440.713 7   -533976.24822        21.000           2.281
  21125569.073    -3763013.544 6  -2841314.49521        18.750           1.000
  23683523.058     -477796.131 5   -355020.90721        11.500           0.406
 91  5 23 21 50 59.9990000  0  4G 2G 6G13G15
  20917601.003      271729.240 7    200773.42523        26.250           3.375
  20392159.870     -705455.216 7   -539442.10422        21.000           2.281
  21115705.261    -3814860.884 6  -2881714.99921        19.000           1.094
  23683028.948     -480408.218 5   -357056.33721        11.000           0.375
 91  5 23 21 51 14.9990000  0  4G 2G 6G13G15
  20918594.425      276953.851 7    204844.53123        26.000           3.375
  20390843.425     -712373.755 7   -544833.17922        21.250           2.219
  21105858.581    -3866602.772 6  -2922033.31921        19.500           1.125
  23682557.065     -482894.436 5   -358993.70921        10.750           0.531
 91  5 23 21 51 29.9990000  0  4G 2G 6G13G15
  20919596.964      282219.433 7    208947.56323        26.000           3.313
  20389544.151     -719194.138 7   -550147.77522        21.000           2.281
  21096035.276    -3918236.840 6  -2962267.63621        19.500           1.031
  23682107.675     -485252.980 5   -360831.59121        10.750           0.438
 91  5 23 21 51 44.9990000  0  4G 2G 6G13G15
  20920606.019      287525.561 7    213082.19223        25.750           3.281
  20388265.565     -725916.479 7   -555385.96722        21.250           2.219
  21086229.034    -3969763.205 6  -3002418.03221        19.750           1.125
  23681681.558     -487484.061 5   -362570.14921        10.250           0.500
 91  5 23 21 51 59.9990000  0  4G 2G 6G13G15
  20921623.456      292873.394 7    217249.31123        26.000           3.438
  20387005.878     -732539.396 7   -560546.68522        21.250           2.344
  21076442.526    -4021180.492 6  -3042483.42421        19.500           1.094
  23681283.253     -489586.354 5   -364208.34121        10.250           0.563
 91  5 23 21 52 14.9990000  0  4G 2G 6G13G15
  20922649.878      298268.412 7    221453.19723        26.500           3.281
  20385764.206     -739057.425 7   -565625.68022        21.000           2.313
  21066681.815    -4072482.851 6  -3082459.25621        19.250           1.000
  23680909.269     -491554.602 5   -365742.07021        10.500           0.313
 91  5 23 21 52 29.9990000  0  4G 2G 6G13G15
  20923686.167      303706.654 7    225690.76823        26.500           3.219
  20384545.995     -745474.409 7   -570625.93322        21.250           2.219
  21056940.003    -4123674.283 6  -3122348.66121        19.250           1.094
  23680559.659     -493392.910 5   -367174.58821        11.000           0.438
 91  5 23 21 52 44.9990000  0  4G 2G 6G13G15
  20924728.948      309190.875 7    229964.16723        26.750           3.250
  20383344.019     -751787.190 7   -575544.99722        20.750           2.344
  21047218.730    -4174751.488 6  -3162149.05921        18.750           1.125
  23680235.105     -495098.294 5   -368503.49221        10.750           0.500
 91  5 23 21 52 59.9990000  0  4G 2G 6G13G15
  20925780.839      314720.517 7    234272.96423        26.250           3.219
  20382159.964     -757996.253 7   -580383.23222        20.750           2.406
  21037521.284    -4225714.728 6  -3201860.63921        19.250           0.969
  23679936.956     -496671.230 5   -369729.18921        11.250           0.500
 91  5 23 21 53 14.9990000  0  4G 2G 6G13G15
  20926842.323      320294.897 7    238616.62223        26.750           3.125
  20381000.167     -764102.076 7   -585141.02423        20.750           2.500
  21027843.198    -4276564.286 6  -3241483.66121        18.500           1.125
  23679664.292     -498112.553 5   -370852.32921        10.500           0.500
 91  5 23 21 53 29.9990000  0  4G 2G 6G13G15
  20927909.448      325909.902 7    242991.92523        26.500           3.125
  20379856.315     -770108.826 7   -589821.61522        20.750           2.344
  21018189.019    -4327304.361 6  -3281021.34621        19.000           1.156
  23679411.292     -499426.710 5   -371876.37721        10.250           0.594
 91  5 23 21 53 44.9990000  0  4G 2G 6G13G15
  20928985.597      331562.115 7    247396.22023        26.500           3.250
  20378733.581     -776019.567 7   -594427.39622        21.000           2.344
  21008556.089    -4377937.782 6  -3320475.94421        18.750           1.219
  23679180.097     -500616.734 5   -372803.71921        10.250           0.469
 91  5 23 21 53 59.9990000  0  4G 2G 6G13G15
  20930066.167      337254.787 7    251832.04423        26.250           3.156
  20377624.144     -781830.963 7   -598955.76022        20.500           2.438
  20998940.464    -4428461.310 6  -3359844.90021        18.750           1.094
  23678984.433     -501679.637 5   -373631.99521        10.750           0.438
 91  5 23 21 54 14.9990000  0  4G 2G 6G13G15
  20931161.237      342991.311 7    256302.04823        27.250           3.031
  20376541.253     -787539.609 7   -603404.06822        20.750           2.375
  20989347.792    -4478871.258 6  -3399125.35821        18.750           0.969
  23678808.581     -502612.093 5   -374358.62721        11.750           0.500
 91  5 23 21 54 29.9990000  0  4G 2G 6G13G15
  20932258.573      348768.766 7    260803.94023        26.500           3.063
  20375474.058     -793148.097 7   -607774.32322        20.750           2.469
  20979774.831    -4529170.379 6  -3438319.45521        18.500           1.094
  23678649.886     -503416.897 5   -374985.77821        11.000           0.344
 91  5 23 21 54 44.9990000  0  4G 2G 6G13G15
  20933367.980      354586.678 7    265337.36023        27.000           3.125
  20374424.136     -798656.782 7   -612066.81922        20.500           2.469
  20970226.042    -4579358.802 6  -3477427.28821        19.250           1.219
  23678519.886     -504094.393 5   -375513.75421        10.250           0.406
 91  5 23 21 54 59.9990000  0  4G 2G 6G13G15
  20934482.714      360444.996 7    269902.26223        27.250           3.000
  20373394.589     -804065.515 6   -616281.42022        19.750           2.406
  20960697.183    -4629436.198 6  -3516448.61221        19.250           1.063
  23678422.761     -504644.642 5   -375942.56621        10.750           0.406
 91  5 23 21 55 14.9990000  0  4G 2G 6G13G15
  20935603.565      366344.931 7    274499.59023        26.750           3.063
  20372385.909     -809372.854 7   -620417.01722        20.250           2.406
  20951190.167    -4679401.037 7  -3555382.23721        20.000           1.281
  23678337.550     -505066.588 5   -376271.41321        10.500           0.406
 91  5 23 21 55 29.9990000  0  4G 2G 6G13G15
  20936734.448      372282.946 7    279126.59523        27.000           2.969
  20371391.862     -814582.123 7   -624476.20422        20.250           2.406
  20941701.480    -4729256.608 6  -3594230.70721        19.750           1.156
  23678283.222     -505363.942 5   -376503.12421        10.250           0.344
 91  5 23 21 55 44.9990000  0  4G 2G 6G13G15
  20937872.370      378261.286 7    283785.02923        26.750           3.000
  20370420.698     -819690.973 6   -628457.13222        19.750           2.406
  20932233.855    -4779000.505 6  -3632992.16521        19.750           1.094
  23678252.870     -505534.414 6                        12.000
 91  5 23 21 55 59.9990000  0  4G 2G 6G13G15
  20939018.847      384284.564 7    288478.47123        27.500           2.844
  20369470.097     -824694.880 7   -632356.29322        20.500           2.406
  20922789.355    -4828628.130 6  -3671663.02321        19.500           1.125
  23678242.753     -505573.470 5                        11.000
 91  5 23 21 56 14.9990000  0  4G 2G 6G13G15
  20940171.042      390347.475 7    293202.79423        27.250           2.906
  20368536.378     -829598.938 6   -636177.63822        19.750           2.344
  20913369.073    -4878144.386 7  -3710247.08221        20.500           1.094
  23678257.667     -505486.507 5                        10.250
 91  5 23 21 56 29.9990000  0  4G 2G 6G13G15
  20941334.183      396452.340 7    297959.81423        27.250           3.000
  20367624.112     -834400.539 7   -639919.16022        20.500           2.313
  20903968.776    -4927546.428 7  -3748742.16221        20.250           1.219
  23678299.987     -505271.039 5                        10.250
 91  5 23 21 56 44.9990000  0  4G 2G 6G13G15
  20942504.284      402596.035 7    302747.08423        27.500           2.875
  20366728.222     -839102.616 7   -643583.12422        20.000           2.344
  20894586.917    -4976837.206 7  -3787150.53721        20.500           1.125
  23678361.620     -504930.211 5                        10.250
 91  5 23 21 56 59.9990000  0  4G 2G 6G13G15
  20943680.964      408781.150 7    307566.62523        27.750           2.906
  20365852.011     -843702.719 7   -647167.62622        20.000           2.344
  20885230.269    -5026014.146 7  -3825470.20621        20.500           1.063
  23678453.534     -504461.486 5   -375800.25021        10.000           0.344
 91  5 23 21 57 14.9990000  0  4G 2G 6G13G15
  20944863.784      415005.536 7    312416.77023        27.750           2.844
  20364996.589     -848202.645 7   -650674.06822        20.250           2.406
  20875891.440    -5075078.887 6  -3863702.44521        19.750           1.188
  23678563.339     -503867.435 5   -375337.37821        10.000           0.375
 91  5 23 21 57 29.9990000  0  4G 2G 6G13G15
  20946057.792      421272.864 7    317300.38523        27.500           2.813
  20364158.480     -852598.589 7   -654099.49022        20.000           2.406
  20866576.972    -5124027.458 6  -3901844.16721        19.750           1.094
  23678700.847     -503144.258 5   -374773.88721        11.000           0.281
 91  5 23 21 57 44.9990000  0  4G 2G 6G13G15
  20947258.495      427584.155 7    322218.24023        27.500           2.938
  20363343.276     -856889.333 7   -657442.93722        20.500           2.250
  20857285.784    -5172858.924 6  -3939894.63521        19.500           1.156
  23678868.933     -502290.758 5   -374108.84721        10.750           0.281
 91  5 23 21 57 59.9990000  0  4G 2G 6G13G15
  20948468.253      433936.305 7    327167.94323        27.750           2.938
  20362544.589     -861077.927 7   -660706.78222        20.000           2.375
  20848014.081    -5221575.966 6  -3977855.94221        19.500           1.156
  23679054.519     -501310.174 5   -373344.75821        10.750           0.250
 91  5 23 21 58 14.9990000  0  4G 2G 6G13G15
  20949682.534      440324.363 7    332145.62323        27.750           2.844
  20361768.019     -865169.235 7   -663894.83222        20.250           2.313
  20838766.190    -5270183.185 6  -4015731.67521        19.750           1.188
  23679262.823     -500207.924 5   -372485.92321         9.750           0.469
 91  5 23 21 58 29.9990000  0  4G 2G 6G13G15
  20950907.339      446750.952 8    337153.33223        28.000           2.719
  20361006.948     -869160.385 6   -667004.82222        19.750           2.281
  20829538.612    -5318677.847 7  -4053519.68821        20.250           1.156
  23679490.394     -498980.921 5   -371529.85821         9.500           0.313
 91  5 23 21 58 44.9990000  0  4G 2G 6G13G15
  20952138.409      453225.062 7    342198.07323        27.750           2.813
  20360270.565     -873042.159 7   -670029.59322        20.500           2.313
  20820332.394    -5367050.441 6  -4091212.60221        19.500           1.125
  23679757.730     -497620.240 5   -370469.59621        10.750           0.375
 91  5 23 21 58 59.9990000  0  4G 2G 6G13G15
  20953377.526      459745.276 7    347278.72723        27.500           2.906
  20359551.276     -876816.026 7   -672970.28222        20.000           2.313
  20811150.753    -5415302.602 6  -4128811.66521        19.750           1.250
  23680038.878     -496127.583 5   -369306.53321        11.250           0.344
 91  5 23 21 59 14.9990000  0  4G 2G 6G13G15
  20954628.151      466309.512 8    352393.70323        28.000           2.781
  20358852.886     -880483.911 7   -675828.38522        20.000           2.375
  20801991.651    -5463436.153 7  -4166318.29721        20.250           1.219
  23680346.917     -494505.177 5   -368042.32721        10.250           0.406
 91  5 23 21 59 29.9990000  0  4G 2G 6G13G15
  20955884.425      472921.440 7    357545.82723        27.500           2.844
  20358176.659     -884041.963 7   -678600.90222        20.000           2.344
  20792855.026    -5511447.028 7  -4203729.35321        20.500           1.156
  23680682.284     -492749.211 5   -366674.09021        10.250           0.500
 91  5 23 21 59 44.9990000  0  4G 2G 6G13G15
  20957153.503      479578.590 7    362733.19623        27.500           2.813
  20357519.878     -887492.450 7   -681289.60322        20.250           2.313
  20783741.651    -5559337.511 7  -4241046.58521        20.500           1.250
  23681037.597     -490862.279 5   -365203.76321        10.750           0.313
 91  5 23 21 59 59.9990000  0  4G 2G 6G13G15
  20958426.011      486283.130 7    367957.49323        27.000           2.781
  20356885.417     -890833.152 7   -683892.75622        20.000           2.281
  20774651.026    -5607104.895 7  -4278267.90521        20.250           1.281
  23681421.136     -488842.062 5   -363629.60921        10.000           0.375
 91  5 23 22  0 14.9990000  0  4G 2G 6G13G15
  20959713.315      493030.776 7    373215.38123        27.250           2.750
  20356266.659     -894068.001 6   -686413.42222        19.500           2.375
  20765584.964    -5654753.317 7  -4315396.51421        21.250           1.156
  23681831.808     -486692.918 5   -361954.94921        10.500           0.344
 91  5 23 22  0 29.9990000  0  4G 2G 6G13G15
  20961005.292      499826.226 7    378510.51423        27.250           2.813
  20355673.651     -897192.226 6   -688847.88322        19.500           2.281
  20756542.651    -5702278.101 7  -4352428.79421        21.500           1.281
  23682271.886     -484410.437 5   -360176.43021        10.750           0.344
 91  5 23 22  0 44.9990000  0  4G 2G 6G13G15
  20962307.690      506664.198 7    383838.78223        27.750           2.906
  20355096.183     -900211.329 6   -691200.44922        19.250           2.438
  20747519.620    -5749684.479 7  -4389368.80521        21.000           1.375
  23682726.190     -482000.135 5   -358298.30721        10.000           0.406
 91  5 23 22  0 59.9990000  0  4G 2G 6G13G15
  20963618.847      513547.486 7    389202.37023        27.750           2.844
  20354545.948     -903122.193 6   -693468.66222        19.750           2.375
  20738520.964    -5796969.279 7  -4426214.08421        21.000           1.250
  23683210.480     -479459.278 5   -356318.47721         9.750           0.375
 91  5 23 22  1 14.9990000  0  4G 2G 6G13G15
  20964934.526      520479.649 7    394604.03423        27.250           2.875
  20354014.933     -905921.098 7   -695649.63822        20.000           2.281
  20729547.206    -5844128.547 7  -4462961.55221        21.250           1.250
  23683722.815     -476784.116 5   -354233.95621        10.750           0.375
 91  5 23 22  1 29.9990000  0  4G 2G 6G13G15
  20966266.823      527464.457 7    400046.72123        27.000           2.813
  20353502.440     -908604.141 6   -697740.33422        19.500           2.219
  20720599.230    -5891158.467 7  -4499608.21221        21.500           1.281
  23684252.097     -473970.985 5   -352041.91721         9.750           0.281
 91  5 23 22  1 44.9990000  0  4G 2G 6G13G15
  20967602.823      534492.160 7    405522.83423        26.750           2.906
  20353010.878     -911180.782 7   -699748.12122        20.250           2.281
  20711672.878    -5938068.193 7  -4536161.21821        21.500           1.438
  23684820.190     -471029.776 5   -349750.06721        10.000           0.313
 91  5 23 22  1 59.9990000  0  4G 2G 6G13G15
  20968949.128      541564.729 7    411033.91023        27.500           2.938
  20352542.136     -913649.077 7   -701671.48422        20.000           2.250
  20702766.136    -5984855.843 7  -4572619.11421        20.500           1.281
  23685399.276     -467958.363 5   -347356.77621         9.750           0.313
 91  5 23 22  2 14.9990000  0  4G 2G 6G13G15
  20970305.276      548686.252 7    416583.12723        27.000           2.875
  20352095.581     -916005.107 7   -703507.36422        20.750           2.313
  20693889.370    -6031517.377 7  -4608978.72621        20.750           1.313
  23686009.878     -464753.113 5   -344859.20321        10.250           0.250
 91  5 23 22  2 29.9990000  0  4G 2G 6G13G15
  20971668.495      555851.729 7    422166.58723        27.250           2.938
  20351667.292     -918253.284 7   -705259.20322        20.000           2.219
  20685032.987    -6078056.957 7  -4645243.31121        21.250           1.344
  23686645.995     -461418.842 5   -342261.05221         9.500           0.281
 91  5 23 22  2 44.9990000  0  4G 2G 6G13G15
  20973039.714      563071.663 7    427792.48723        26.250           2.844
  20351263.753     -920383.163 7   -706918.86122        21.000           2.219
  20676201.206    -6124464.099 7  -4681404.69721        21.000           1.375
  23687305.620     -457945.367 5   -339554.46721         9.250           0.313
 91  5 23 22  2 59.9990000  0  4G 2G 6G13G15
  20974425.409      570339.773 7    433455.93323        26.750           3.031
  20350877.503     -922400.822 6   -708491.07722        19.750           2.219
  20667393.847    -6170744.842 7  -4717467.59821        21.500           1.219
  23687991.683     -454338.748 5   -336744.13921         9.500           0.281
 91  5 23 22  3 14.9990000  0  4G 2G 6G13G15
  20975818.026      577654.767 7    439155.90123        27.000           2.969
  20350515.206     -924307.462 7   -709976.77622        20.500           2.281
  20658611.597    -6216900.287 7  -4753432.85521        21.000           1.344
  23688704.972     -450600.447 5   -333831.21521        10.250           0.281
 91  5 23 22  3 29.9990000  0  4G 2G 6G13G15
  20977217.323      585022.232 7    444896.76823        26.500           3.031
  20350175.565     -926097.392 7   -711371.53822        20.000           2.250
  20649853.339    -6262924.569 7  -4789295.91121        21.000           1.313
  23689445.261     -446724.881 5   -330811.28321        10.500           0.313
 91  5 23 22  3 44.9990000  0  4G 2G 6G13G15
  20978628.745      592435.926 7    450673.64723        26.250           3.094
  20349855.948     -927776.930 7   -712680.27422        20.250           2.313
  20641119.964    -6308824.154 7  -4825061.80121        21.750           1.438
  23690201.347     -442718.789 5   -327689.66021        10.000           0.281
 91  5 23 22  3 59.9990000  0  4G 2G 6G13G15
  20980050.878      599902.426 7    456491.67323        26.500           2.906
  20349556.394     -929339.062 7   -713897.53422        20.500           2.344
  20632409.690    -6354591.965 7  -4860725.01321        21.500           1.375
  23690989.245     -438575.385 5   -324461.06321        10.000           0.281
 91  5 23 22  4 14.9990000  0  4G 2G 6G13G15
  20981482.222      607421.048 7    462350.32423        26.500           3.000
  20349281.636     -930784.584 7   -715023.92122        20.000           2.406
  20623726.511    -6400228.665 7  -4896286.05621        21.750           1.438
  23691806.026     -434295.395 5   -321125.98721        10.000           0.375
 91  5 23 22  4 29.9990000  0  4G 2G 6G13G15
  20982921.620      614985.253 7    468244.49123        26.250           2.969
  20349029.097     -932119.833 7   -716064.38922        20.500           2.250
  20615064.901    -6445740.502 7  -4931749.80821        21.500           1.375
  23692642.948     -429885.515 5   -317689.76221         9.250           0.406
 91  5 23 22  4 44.9990000  0  4G 2G 6G13G15
  20984371.112      622602.730 7    474180.17423        26.500           3.000
  20348796.722     -933337.171 7   -717012.97222        20.000           2.250
  20606428.511    -6491119.586 7  -4967110.10721        21.500           1.375
  23693510.128     -425338.244 5   -314146.46621        10.000           0.281
 91  5 23 22  4 59.9990000  0  4G 2G 6G13G15
  20985827.636      630267.021 7    480152.32123        25.500           3.000
  20348585.605     -934442.763 7   -717874.48422        20.500           2.313
  20597819.120    -6536372.116 7  -5002371.80621        22.500           1.375
  23694395.831     -420660.077 5   -310501.12321         9.750           0.281
 91  5 23 22  5 14.9990000  0  4G 2G 6G13G15
  20987297.089      637978.215 7    486161.02923        25.750           3.031
  20348397.776     -935436.338 7   -718648.70322        20.500           2.313
  20589232.480    -6581497.741 7  -5037534.60521        22.250           1.438
  23695311.815     -415850.914 5   -306753.74521        10.000           0.344
 91  5 23 22  5 29.9990000  0  4G 2G 6G13G15
  20988772.417      645737.836 7    492207.46423        26.500           3.094
  20348229.425     -936316.418 7   -719334.49722        20.000           2.313
  20580667.151    -6626494.651 7  -5072597.11521        22.000           1.406
  23696252.987     -410909.592 5   -302903.37121         9.750           0.313
 91  5 23 22  5 44.9990000  0  4G 2G 6G13G15
  20990258.933      653547.884 7    498293.19523        26.750           2.875
  20348080.839     -937080.765 7   -719930.10022        20.250           2.219
  20572130.042    -6671360.722 7  -5107557.67521        21.250           1.438
  23697221.394     -405834.004 5   -298948.38821         8.750           0.344
 91  5 23 22  5 59.9990000  0  4G 2G 6G13G15
  20991753.472      661413.127 7    504421.94223        25.750           2.938
  20347961.995     -937724.595 7   -720431.80422        20.000           2.344
  20563620.011    -6716090.927 7  -5142412.35521        22.500           1.438
  23698218.855     -400619.575 5   -294885.22321         9.000           0.406
 91  5 23 22  6 14.9990000  0  4G 2G 6G13G15
  20993263.472      669332.713 7    510593.02723        26.250           3.000
  20347857.870     -938248.642 7   -720840.15622        20.000           2.313
  20555131.261    -6760686.197 7  -5177161.90122        21.500           1.531
  23699231.253     -395267.083 5   -290714.49921         8.250           0.500
 91  5 23 22  6 29.9990000  0  4G 2G 6G13G15
  20994778.019      677302.641 7    516803.34023        26.250           3.031
  20347784.245     -938656.604 7   -721158.06622        20.000           2.188
  20546672.878    -6805150.109 7  -5211809.08721        22.000           1.406
  23700278.940     -389780.730 5   -286439.44521         8.750           0.344
 91  5 23 22  6 44.9990000  0  4G 2G 6G13G15
  20996307.659      685328.502 7    523057.23423        27.250           3.094
  20347727.386     -938942.868 7   -721381.13422        20.000           2.281
  20538234.940    -6849476.835 7  -5246349.37721        21.250           1.469
  23701342.284     -384154.932 5   -282055.75821         8.250           0.375
 91  5 23 22  6 59.9990000  0  4G 2G 6G13G15
  20997844.230      693407.611 7    529352.62823        26.750           3.000
  20347698.776     -939110.023 7                        20.000
  20529826.870    -6893668.845 7  -5280784.69122        21.500           1.500
  23702448.237     -378392.464 5   -277565.53521         8.750           0.188
 91  5 23 22  7 14.9990000  0  4G 2G 6G13G15
  20999391.308      701540.402 7    535689.84623        27.000           2.969
  20347688.823     -939157.684 6                        19.750
  20521443.542    -6937725.635 7  -5315114.63921        21.000           1.375
  23703566.956     -372493.175 5   -272968.69421         8.500           0.313
 91  5 23 22  7 29.9990000  0  4G 2G 6G13G15
  21000947.730      709721.388 7    542064.61723        26.250           2.938
  20347703.464     -939091.165 7                        20.000
  20513082.808    -6981652.328 7  -5349343.21622        21.250           1.531
  23704719.839     -366462.779 5   -268269.72721         9.250           0.406
 91  5 23 22  7 44.9990000  0  4G 2G 6G13G15
  21002515.480      717951.419 7    548477.60423        26.500           3.094
  20347737.589     -938909.660 7                        20.500
  20504751.183    -7025448.264 7  -5383469.89821        21.250           1.313
  23705879.628     -360300.393 5   -263467.88421         8.000           0.281
 91  5 23 22  7 59.9990000  0  4G 2G 6G13G15
  21004089.534      726233.117 7    554930.85423        26.750           3.125
  20347791.487     -938610.189 7                        20.250
  20496439.784    -7069110.390 7  -5417492.32021        21.000           1.438
  23707086.448     -354003.642 5   -258561.35421         8.000           0.406
 91  5 23 22  8 14.9990000  0  4G 2G 6G13G15
  21005676.425      734574.131 7    561430.32023        26.750           3.125
  20347874.089     -938185.261 7   -720790.85822        20.000           2.344
  20488160.917    -7112631.083 7  -5451404.52721        21.750           1.469
  23708312.128     -347565.026 5   -253544.29621         8.000           0.375
 91  5 23 22  8 29.9990000  0  4G 2G 6G13G15
  21007275.245      742965.578 7    567969.08523        27.000           3.000
  20347979.995     -937643.521 7   -720368.73422        20.500           2.281
  20479902.058    -7156018.927 7  -5485213.21721        21.250           1.469
  23709568.370     -340993.501 5   -248423.64921         8.750           0.469
 91  5 23 22  8 44.9990000  0  4G 2G 6G13G15
  21008880.526      751412.714 7    574551.24623        27.000           2.938
  20348104.011     -936979.559 6   -719851.36722        19.500           2.219
  20471673.956    -7199268.529 7  -5518914.19221        22.250           1.438
  23710831.081     -334283.687 5   -243195.22921         8.000           0.344
 91  5 23 22  8 59.9990000  0  4G 2G 6G13G15
  21010497.190      759907.436 7    581170.49423        26.000           2.938
  20348254.292     -936201.187 7   -719244.85522        20.000           2.125
  20463468.300    -7242387.402 7  -5552513.28921        22.000           1.438
  23712137.347     -327443.756 5   -237865.43621         9.000           0.375
 91  5 23 22  9 14.9990000  0  4G 2G 6G13G15
  21012122.839      768449.956 7    587826.98923        26.500           3.031
  20348422.956     -935308.372 7   -718549.16522        20.250           2.188
  20455286.503    -7285375.485 7  -5586010.48121        22.000           1.344
  23713465.815     -320473.725 5   -232434.26921         8.750           0.500
 91  5 23 22  9 29.9990000  0  4G 2G 6G13G15
  21013757.776      777043.315 7    594523.09423        26.250           3.031
  20348615.878     -934298.080 6   -717761.93622        19.750           2.188
  20447133.628    -7328229.791 7  -5619403.42621        22.500           1.438
  23714817.050     -313370.744 5   -226899.50521         8.250           0.406
 91  5 23 22  9 44.9990000  0  4G 2G 6G13G15
  21015402.464      785682.238 7    601254.70223        26.500           3.125
  20348828.980     -933175.341 6   -716887.08922        19.750           2.094
  20439002.315    -7370955.250 7  -5652695.96821        22.500           1.406
  23716195.136     -306140.208 5   -221265.36421         9.000           0.344
 91  5 23 22  9 59.9990000  0  4G 2G 6G13G15
  21017056.355      794362.432 7    608018.47523        27.000           3.031
  20349060.855     -931944.408 6   -715927.92622        19.500           2.188
  20430895.151    -7413556.049 7  -5685891.37621        21.750           1.438
  23717593.237     -298786.545 5   -215535.26521         8.750           0.344
 91  5 23 22 10 14.9990000  0  4G 2G 6G13G15
  21018713.690      803088.476 7    614817.96423        26.250           3.031
  20349316.214     -930600.803 7   -714880.97622        20.000           2.344
  20422812.737    -7456027.438 7  -5718985.95121        22.000           1.438
  23719016.690     -291305.412 5   -209705.83721         8.750           0.438
 91  5 23 22 10 29.9990000  0  4G 2G 6G13G15
  21020385.761      811862.283 7    621654.68223        26.750           3.000
  20349592.839     -929142.268 7   -713744.47022        20.000           2.156
  20414754.722    -7498367.165 7  -5751977.91622        21.500           1.563
  23720461.886     -283695.018 5   -203775.69921         8.250           0.438
 91  5 23 22 10 44.9990000  0  4G 2G 6G13G15
  21022073.448      820735.409 7    628568.78323        26.750           2.750
  20349904.073     -927517.164 6   -712478.15722        19.500           2.344
  20406734.651    -7540523.545 7  -5784827.02822        21.750           1.563
  23721946.862     -275903.758 5   -197704.60821         8.750           0.500
 91  5 23 22 10 59.9990000  0  4G 2G 6G13G15
  21023792.136      829762.555 7    635602.92223        26.750           2.875
  20350253.628     -925670.671 7   -711039.34222        20.250           2.188
  20398755.565    -7582441.554 7  -5817490.39321        21.000           1.469
  23723473.464     -267877.385 5   -191450.34321         8.750           0.375
 91  5 23 22 11 14.9990000  0  4G 2G 6G13G15
  21025518.425      838839.496 7    642675.84523        26.500           3.000
  20350628.597     -923706.992 6   -709509.21222        19.750           2.094
  20390805.761    -7624225.421 7  -5850049.23022        21.250           1.500
  23725026.503     -259719.952 5   -185093.92921         9.250           0.500
 91  5 23 22 11 29.9990000  0  4G 2G 6G13G15
  21027268.573      848039.560 7    649844.70723        26.000           3.000
  20351040.112     -921552.773 7   -707830.61322        20.500           2.156
  20382896.042    -7665801.760 7  -5882446.35922        21.500           1.531
  23726614.237     -251358.488 5   -178578.57521         7.750           0.406
 91  5 23 22 11 44.9990000  0  3G 2G 6G13
  21029045.487      857371.132 7    657116.04023        26.500           2.938
  20351486.980     -919199.443 7   -705996.85522        20.500           2.188
  20375023.042    -7707161.956 7  -5914675.06622        20.750           1.531
 91  5 23 22 11 59.9990000  0  3G 2G 6G13
  21030833.440      866763.884 7    664435.06323        27.000           2.906
  20351959.409     -916717.281 7   -704062.71422        20.000           2.219
  20367181.401    -7748376.151 7  -5946790.00121        21.500           1.438
 91  5 23 22 12 14.9990000  0  3G 2G 6G13
  21032628.222      876205.721 7    671792.32023        26.000           2.781
  20352454.167     -914118.428 7   -702037.65322        20.750           2.156
  20359362.917    -7789456.474 7  -5978800.62222        21.250           1.594
 91  5 23 22 12 29.9990000  0  3G 2G 6G13
  21034438.433      885702.289 7    679192.23423        26.750           2.750
  20352969.581     -911397.101 6   -699917.14022        19.750           2.281
  20351572.581    -7830396.909 7  -6010702.23722        21.750           1.531
 91  5 23 22 12 44.9990000  0  3G 2G 6G13
  21036253.167      895256.253 7    686636.87023        26.250           2.719
  20353514.605     -908550.391 7   -697698.94622        20.750           2.188
  20343807.565    -7871194.503 7  -6042492.55822        21.250           1.531
 91  5 23 22 12 59.9990000  0  3G 2G 6G13
  21038085.026      904866.525 7    694125.38123        26.000           2.813
  20354077.620     -905579.520 6   -695383.97922        19.500           2.188
  20336073.730    -7911850.288 7  -6074172.36021        22.750           1.438
 91  5 23 22 13 14.9990000  0  3G 2G 6G13
  21039926.394      914525.691 7    701651.98123        27.250           2.750
  20354662.472     -902491.677 7   -692977.88822        20.000           2.188
  20328361.019    -7952371.744 7  -6105747.50022        21.750           1.531
 91  5 23 22 13 29.9990000  0  3G 2G 6G13
  21041769.792      924229.563 7    709213.41923        26.000           2.781
  20355275.737     -899290.992 7   -690483.84622        20.000           2.188
  20320676.503    -7992762.639 7  -6137220.90622        22.750           1.500
 91  5 23 22 13 44.9990000  0  3G 2G 6G13
  21043624.870      933986.507 7    716816.21823        26.250           2.813
  20355909.214     -895969.127 7   -687895.39222        20.000           2.156
  20313015.550    -8033014.715 7  -6168586.13821        22.500           1.375
 91  5 23 22 13 59.9980000  0  3G 2G 6G13
  21045492.373      943795.554 7    724459.61223        26.000           2.656
  20356564.686     -892526.436 7   -685212.78922        20.000           2.188
  20305384.397    -8073125.472 7  -6199841.25521        22.750           1.406
 91  5 23 22 14 14.9980000  0  3G 2G 6G13
  21047367.045      953651.951 7    732139.90723        25.750           2.625
  20357240.740     -888968.665 7   -682440.51422        20.500           2.156
  20297775.576    -8113106.260 7  -6230995.09522        23.000           1.625
 91  5 23 22 14 29.9980000  0  3G 2G 6G13
  21049251.818      963559.145 7    739859.79023        26.000           2.625
  20357937.615     -885291.563 6   -679575.24222        19.500           2.156
  20290192.693    -8152949.966 7  -6262042.12022        22.750           1.500
 91  5 23 22 14 44.9980000  0  3G 2G 6G13
  21051144.545      973507.447 7    747611.69223        25.500           2.750
  20358660.092     -881504.912 7   -676624.62322        20.250           2.156
  20282636.873    -8192665.931 7  -6292989.59922        22.750           1.563
 91  5 23 22 14 59.9980000  0  3G 2G 6G13
  21053049.092      983508.989 7    755405.09223        25.500           2.750
  20359402.381     -877596.442 6   -673579.07122        19.750           2.125
  20275105.420    -8232242.054 7  -6323828.12222        23.000           1.563
 91  5 23 22 15 14.9980000  0  3G 2G 6G13
  21054960.076      993556.774 7    763234.51023        25.500           2.625
  20360170.100     -873573.049 7   -670443.97422        20.000           2.000
  20267599.045    -8271685.187 7  -6354563.01122        22.750           1.531
 91  5 23 22 15 29.9980000  0  3G 2G 6G13
  21056879.178     1003649.071 7    771098.62023        25.250           2.688
  20360955.662     -869436.534 6   -667220.72422        19.500           2.188
  20260118.803    -8310996.875 7  -6385195.47622        23.000           1.656
 91  5 23 22 15 44.9980000  0  3G 2G 6G13
  21058811.467     1013793.398 7    779003.27723        25.250           2.656
  20361768.607     -865179.478 7   -663903.54522        20.500           2.094
  20252663.397    -8350169.730 7  -6415719.76522        22.750           1.625
 91  5 23 22 15 59.9980000  0  3G 2G 6G13
  21060753.225     1023986.066 7    786945.60023        25.750           2.688
  20362596.076     -860805.453 7   -660495.22822        20.000           2.219
  20245234.436    -8389207.472 7  -6446138.76422        23.250           1.594
 91  5 23 22 16 14.9980000  0  3G 2G 6G13
  21062699.553     1034227.253 7    794925.72623        24.750           2.719
  20363452.225     -856313.986 7   -656995.39222        20.250           2.219
  20237832.889    -8428109.382 7  -6476451.91722        23.500           1.594
 91  5 23 22 16 29.9980000  0  3G 2G 6G13
  21064657.264     1044513.585 7    802941.03223        25.000           2.594
  20364330.068     -851708.273 7   -653406.54422        20.000           2.188
  20230455.615    -8466878.652 7  -6506661.72322        23.750           1.563
 91  5 23 22 16 44.9980000  0  3G 2G 6G13
  21066626.256     1054854.321 7    810998.73423        25.250           2.656
  20365229.600     -846979.189 7   -649721.55222        20.250           2.219
  20223105.779    -8505505.765 7  -6536760.75122        24.000           1.656
 91  5 23 22 16 59.9980000  0  3G 2G 6G13
  21068603.459     1065247.768 7    819097.50023        25.250           2.688
  20366153.209     -842128.428 7   -645941.74822        20.500           2.063
  20215781.272    -8543992.356 7  -6566750.28822        23.500           1.594
 91  5 23 22 17 14.9980000  0  3G 2G 6G13
  21070591.623     1075691.749 7    827235.65023        25.250           2.625
  20367100.615     -837158.169 7   -642068.82722        20.250           2.219
  20208481.818    -8582340.565 7  -6596631.98822        23.500           1.563
 91  5 23 22 17 29.9980000  0  3G 2G 6G13
  21072588.147     1086180.927 7    835409.01723        25.250           2.625
  20368063.576     -832073.668 7   -638106.89522        20.250           2.219
  20201210.100    -8620555.894 7  -6626410.14922        23.500           1.594
 91  5 23 22 17 44.9980000  0  3G 2G 6G13
  21074592.818     1096723.718 7    843624.15823        24.500           2.531
  20369057.936     -826866.366 7   -634049.27522        20.750           2.250
  20193966.607    -8658629.742 7  -6656078.05922        24.000           1.594
 91  5 23 22 17 59.9980000  0  3G 2G 6G13
  21076606.389     1107314.661 7    851876.82323        24.250           2.656
  20370070.920     -821541.792 7   -629900.26822        21.250           2.125
  20186748.045    -8696567.396 7  -6685639.84722        24.000           1.594
 91  5 23 22 18 14.9980000  0  3G 2G 6G13
  21078636.272     1117957.696 7    860170.08523        25.000           2.656
  20371105.459     -816095.892 7   -625656.72822        21.000           2.125
  20179552.279    -8734364.823 7  -6715092.36622        23.000           1.563
 91  5 23 22 18 29.9980000  0  3G 2G 6G13
  21080668.357     1128653.348 7    868504.33823        24.750           2.531
  20372168.381     -810527.956 7   -621318.09522        21.250           2.250
  20172387.115    -8772021.217 7  -6744434.99822        23.500           1.531
 91  5 23 22 18 44.9980000  0  3G 2G 6G13
  21082713.943     1139398.993 7    876877.55423        25.250           2.531
  20373249.029     -804840.580 7   -616886.39722        20.500           2.125
  20165246.436    -8809538.958 7  -6773669.58222        22.750           1.531
 91  5 23 22 18 59.9980000  0  3G 2G 6G13
  21084770.678     1150197.833 7    885292.21223        25.000           2.531
  20374353.373     -799030.608 7   -612359.16122        21.000           2.125
  20158136.928    -8846914.937 7  -6802793.70022        23.250           1.531
 91  5 23 22 19 14.9980000  0  3G 2G 6G13
  21086833.568     1161046.356 7    893745.59422        24.750           2.406
  20375481.178     -793101.484 7   -607739.08622        20.500           2.094
  20151049.795    -8884152.437 7  -6831809.91822        22.500           1.625
 91  5 23 22 19 29.9980000  0  3G 2G 6G13
  21088909.342     1171946.226 7    902238.98123        25.000           2.500
  20376634.920     -787051.534 7   -603024.85422        21.000           2.156
  20143990.990    -8921249.857 7  -6860716.97822        22.250           1.531
 91  5 23 22 19 44.9980000  0  3G 2G 6G13
  21090990.631     1182897.039 7    910772.05823        24.500           2.625
  20377811.795     -780881.195 7   -598216.81522        21.000           2.188
  20136958.123    -8958207.465 7  -6889515.10322        22.250           1.563
 91  5 23 22 19 59.9980000  0  3G 2G 6G13
  21093083.936     1193901.422 7    919346.88223        24.750           2.531
  20379006.943     -774587.654 7   -593312.78422        20.500           2.125
  20129951.318    -8995022.457 7  -6918202.08822        22.000           1.563
 91  5 23 22 20 14.9980000  0  3G 2G 6G13
  21095186.975     1204953.732 7    927959.05423        24.500           2.531
  20380227.740     -768176.354 7   -588316.96922        20.750           2.281
  20122971.701    -9031700.260 7  -6946782.18922        22.250           1.563
 91  5 23 22 20 29.9980000  0  3G 2G 6G13
  21097300.467     1216058.134 7    936611.81223        24.250           2.531
  20381471.662     -761643.310 7   -583226.30822        20.500           2.094
  20116019.889    -9068236.774 7  -6975252.16822        22.500           1.594
 91  5 23 22 20 44.9980000  0  3G 2G 6G13
  21099425.256     1227216.664 7    945306.75423        24.500           2.500
  20382738.850     -754986.475 7   -578039.18222        21.000           2.219
  20109092.998    -9104629.905 7  -7003610.44621        22.000           1.469
 91  5 23 22 20 59.9980000  0  3G 2G 6G13
  21101558.404     1238429.068 7    954043.67123        24.000           2.531
  20384026.514     -748206.033 7   -572755.74622        20.000           2.188
  20102197.482    -9140879.558 7  -7031856.91122        23.250           1.563
 91  5 23 22 21 14.9980000  0  3G 2G 6G13
  21103705.107     1249699.157 7    962825.54723        23.750           2.531
  20385338.654     -741297.984 7   -567372.87822        20.500           2.219
  20095326.443    -9176981.894 7  -7059988.58522        22.500           1.563
 91  5 23 22 21 29.9980000  0  3G 2G 6G13
  21105861.951     1261021.637 7    971648.23322        25.000           2.469
  20386676.850     -734267.667 7   -561894.71722        20.250           2.156
  20088483.037    -9212942.041 7  -7088009.46422        22.500           1.594
 91  5 23 22 21 44.9980000  0  3G 2G 6G13
  21108021.193     1272396.598 7    980511.81723        24.250           2.500
  20388042.568     -727115.026 7   -556321.23822        21.000           2.188
  20081669.201    -9248760.207 7  -7115919.70122        22.750           1.531
 91  5 23 22 21 59.9980000  0  3G 2G 6G13
  21110194.943     1283828.367 7    989419.66422        23.750           2.438
  20389424.803     -719835.763 7   -550649.10222        20.500           2.250
  20074880.412    -9284431.845 7  -7143715.76622        23.000           1.531
 91  5 23 22 22 14.9980000  0  3G 2G 6G13
  21112384.818     1295314.537 7    998369.90223        24.250           2.500
  20390831.865     -712432.269 7   -544880.16422        20.500           2.219
  20068117.631    -9319959.163 7  -7171399.37722        22.500           1.500
 91  5 23 22 22 29.9980000  0  3G 2G 6G13
  21114577.412     1306853.430 7   1007361.22222        23.500           2.375
  20392267.834     -704906.073 7   -539015.61822        20.750           2.375
  20061385.615    -9355343.856 7  -7198971.85122        23.250           1.500
 91  5 23 22 22 44.9980000  0  3G 2G 6G13
  21116784.178     1318441.137 7   1016390.58622        23.750           2.375
  20393717.631     -697261.086 7   -533058.50822        20.250           2.344
  20054677.725    -9390589.621 7  -7226436.06921        22.500           1.469
 91  5 23 22 22 59.9980000  0  3G 2G 6G13
  21118998.115     1330082.068 7   1025461.42522        24.000           2.469
  20395201.162     -689492.754 7   -527005.26922        20.750           2.313
  20047998.490    -9425691.945 7  -7253788.51022        22.750           1.500
 91  5 23 22 23 14.9980000  0  3G 2G 6G13
  21121228.522     1341779.073 7   1034575.95422        24.250           2.438
  20396698.717     -681598.295 7   -520853.75722        20.000           2.344
  20041345.131    -9460647.827 7  -7281026.84421        22.500           1.469
 91  5 23 22 23 29.9980000  0  3G 2G 6G13
  21123460.826     1353526.282 7   1043729.60023        23.750           2.500
  20398226.990     -673583.529 7   -514608.50322        20.000           2.344
  20034722.350    -9495463.088 7  -7308155.60121        23.000           1.469
 91  5 23 22 23 44.9980000  0  3G 2G 6G13
  21125707.475     1365328.161 7   1052925.85122        23.750           2.469
  20399772.904     -665444.001 7   -508266.02622        20.750           2.344
  20028121.787    -9530133.202 7  -7335171.26922        22.000           1.500
 91  5 23 22 23 59.9980000  0  3G 2G 6G13
  21127962.006     1377177.917 7   1062159.40022        23.750           2.406
  20401346.576     -657186.398 7   -501831.54322        20.250           2.438
  20021552.045    -9564664.639 7  -7362078.85921        22.750           1.469
 91  5 23 22 24 14.9980000  0  3G 2G 6G13
  21130224.232     1389077.745 7   1071431.96522        23.750           2.375
  20402943.443     -648808.443 7   -495303.28222        20.500           2.375
  20015005.670    -9599055.211 7  -7388876.70022        22.000           1.563
 91  5 23 22 24 29.9980000  0  3G 2G 6G13
  21132500.662     1401028.488 7   1080744.21422        23.750           2.344
  20404558.928     -640309.313 7   -488680.60223        20.250           2.500
  20008490.436    -9633304.258 7  -7415564.24522        23.000           1.563
 91  5 23 22 24 44.9980000  0  3G 2G 6G13
  21134787.084     1413031.788 7   1090097.41422        24.250           2.313
  20406197.639     -631687.507 7   -481962.32722        20.250           2.406
  20001997.365    -9667410.192 7  -7442140.28922        22.000           1.500
 91  5 23 22 24 59.9980000  0  3G 2G 6G13
  21137078.459     1425084.490 7   1099489.11522        23.750           2.344
  20407859.561     -622946.097 7   -475150.85522        20.000           2.375
  19995536.936    -9701375.931 7  -7468607.08022        23.000           1.531
 91  5 23 22 25 14.9980000  0  3G 2G 6G13
  21139380.725     1437188.493 7   1108920.78222        24.000           2.438
  20409549.201     -614083.112 7   -468244.64822        20.250           2.281
  19989099.904    -9735199.302 7  -7494962.94222        23.000           1.594
 91  5 23 22 25 29.9980000  0  4G 2G 6G13G12
  21141695.936     1449336.829 7   1118386.99722        24.500           2.219
  20411258.482     -605105.633 7   -461249.22422        20.000           2.188
  19982690.139    -9768887.292 7  -7521213.30722        23.250           1.594
  23614091.803          -0.96115                         7.500
 91  5 23 22 25 44.9980000  0  4G 2G 6G13G12
  21144014.795     1461535.884 7   1127892.73622        23.750           2.250
  20412988.178     -596007.048 7   -454159.43422        20.250           2.313
  19976306.990    -9802433.396 7  -7547353.11222        23.750           1.688
  23602488.545      -60974.093 5                         7.750
 91  5 23 22 25 59.9980000  0  4G 2G 6G13G12
  21146345.170     1473783.054 7   1137435.96122        23.500           2.250
  20414744.850     -586790.165 7   -446977.46022        20.500           2.313
  19969949.264    -9835840.195 7  -7573384.37422        23.250           1.719
  23590890.545     -121943.100 5                         8.750
 91  5 23 22 26 14.9980000  0  4G 2G 6G13G12
  21148688.982     1486079.333 7   1147017.45822        24.000           2.438
  20416517.803     -577453.951 7   -439702.50322        20.000           2.344
  19963618.006    -9869106.674 7  -7599306.29422        22.750           1.656
  23579292.631     -182906.871 5                         8.000
 91  5 23 22 26 29.9980000  0  4G 2G 6G13G12
  21151036.654     1498426.518 7   1156638.62022        24.500           2.344
  20418316.514     -567996.500 7   -432333.07922        20.000           2.281
  19957315.826    -9902230.946 7  -7625117.40322        23.000           1.625
  23567682.311     -243863.229 4                         6.750
 91  5 23 22 26 44.9980000  0  4G 2G 6G13G12
  21153394.115     1510822.240 7   1166297.60522        23.500           2.219
  20420140.264     -558420.120 6   -424870.97422        19.750           2.375
  19951038.748    -9935215.173 7  -7650819.38122        24.000           1.594
  23556088.756     -304814.321 5        -0.45131         7.500           0.188
 91  5 23 22 26 59.9980000  0  4G 2G 6G13G12
  21155759.412     1523271.306 7   1175998.15922        23.000           2.250
  20421986.889     -548719.977 7   -417312.43322        20.000           2.219
  19944789.186    -9968054.620 7  -7676408.55222        23.500           1.594
  23544495.053     -365755.050 5    -47486.73621         8.000           0.219
 91  5 23 22 27 14.9980000  0  4G 2G 6G13G12
  21158139.920     1535770.882 7   1185738.06722        23.500           2.219
  20423857.889     -538899.126 7   -409659.83522        20.250           2.250
  19938566.787   -10000752.158 7  -7701887.13622        24.250           1.594
  23532903.740     -426688.238 5    -94967.10521         8.250           0.313
 91  5 23 22 27 29.9980000  0  4G 2G 6G13G12
  21160531.436     1548319.256 7   1195516.00022        24.500           2.219
  20425747.834     -528959.149 7   -401914.40922        20.250           2.188
  19932369.928   -10033309.670 7  -7727256.61122        23.250           1.625
  23521302.959     -487615.258 5   -142442.66021         8.000           0.250
 91  5 23 22 27 44.9980000  0  4G 2G 6G13G12
  21162927.772     1560919.150 7   1205334.08822        24.250           2.313
  20427661.100     -518897.339 6   -394074.05122        19.500           2.250
  19926203.850   -10065724.065 7  -7752514.56822        24.250           1.563
  23509710.561     -548533.051 5   -189911.03521         8.250           0.250
 91  5 23 22 27 59.9980000  0  4G 2G 6G13G12
  21165333.740     1573570.942 7   1215192.60722        23.500           2.313
  20429603.592     -508713.220 7   -386138.38422        20.250           2.281
  19920061.732   -10097994.792 7  -7777660.57322        23.750           1.625
  23498125.498     -609440.983 5   -237371.75021         9.250           0.313
 91  5 23 22 28 14.9980000  0  4G 2G 6G13G12
  21167753.381     1586272.274 7   1225089.72222        24.500           2.313
  20431557.842     -498409.195 6   -378109.29122        19.250           2.281
  19913948.576   -10130124.230 7  -7802696.49222        23.750           1.563
  23486541.787     -670341.214 5   -284826.43721         9.500           0.344
 91  5 23 22 28 29.9980000  0  4G 2G 6G13G12
  21170177.647     1599020.461 7   1235023.36122        23.750           2.219
  20433545.943     -487987.922 6   -369988.82822        19.500           2.188
  19907860.670   -10162115.020 7  -7827624.36122        24.000           1.625
  23474949.303     -731236.135 5   -332276.99721         9.250           0.313
 91  5 23 22 28 44.9980000  0  4G 2G 6G13G12
  21172615.490     1611827.523 7   1245002.86722        24.250           2.313
  20435550.803     -477437.434 6   -361767.68522        19.500           2.219
  19901800.006   -10193955.064 7  -7852434.77522        23.250           1.500
  23463359.615     -792113.601 5   -379713.97021         9.000           0.250
 91  5 23 22 28 59.9980000  0  4G 2G 6G13G12
  21175061.139     1624680.166 7   1255017.88922        24.000           2.313
  20437583.154     -466771.062 6   -353456.24422        19.250           2.156
  19895769.725   -10225657.640 7  -7877138.06622        24.250           1.531
  23451775.334     -852986.541 5   -427147.39421         9.500           0.250
 91  5 23 22 29 14.9980000  0  4G 2G 6G13G12
  21177516.264     1637582.379 7   1265071.54822        24.250           2.063
  20439633.217     -455984.845 6   -345051.41122        19.000           2.156
  19889763.787   -10257218.862 7  -7901731.21322        24.500           1.531
  23440192.178     -913850.898 5   -474574.15021         9.000           0.313
 91  5 23 22 29 29.9980000  0  4G 2G 6G13G12
  21179983.068     1650539.943 7   1275168.33022        23.750           2.281
  20441709.100     -445072.749 6   -336548.48822        19.500           2.063
  19883785.037   -10288632.727 7  -7926209.53822        24.250           1.531
  23428615.115     -974700.453 5   -521989.32321         9.250           0.250
 91  5 23 22 29 44.9980000  0  4G 2G 6G13G12
  21182456.772     1663544.369 7   1285301.62922        24.000           2.219
  20443807.787     -434043.521 6   -327954.30322        19.750           2.094
  19877834.240   -10319907.799 7  -7950579.71022        24.250           1.625
  23417036.068    -1035543.505 5   -569399.50021         8.500           0.250
 91  5 23 22 29 59.9980000  0  4G 2G 6G13G12
  21184941.967     1676601.836 7   1295476.26122        24.250           2.125
  20445932.178     -422890.756 6   -319263.84722        18.750           1.969
  19871910.717   -10351037.632 7  -7974836.70922        24.500           1.594
  23405460.889    -1096373.533 5   -616799.50921         8.750           0.250
 91  5 23 22 30 14.9980000  0  4G 2G 6G13G12
  21187433.389     1689707.368 7   1305688.34222        23.750           2.094
  20448077.850     -411619.702 6   -310481.22222        19.250           2.094
  19866013.287   -10382027.477 7  -7998984.63722        24.750           1.656
  23393889.443    -1157195.367 5   -664193.08621         9.250           0.219
 91  5 23 22 30 29.9980000  0  4G 2G 6G13G12
  21189938.029     1702861.525 7   1315938.31322        23.000           2.219
  20450242.631     -400229.708 6   -301605.91622        19.500           2.000
  19860142.686   -10412876.347 7  -8023022.70422        24.750           1.594
  23382316.834    -1218008.149 5   -711579.65321        10.500           0.313
 91  5 23 22 30 44.9980000  0  4G 2G 6G13G12
  21192451.975     1716062.242 7   1326224.56522        23.750           2.125
  20452431.232     -388722.849 6   -292639.54222        19.250           2.094
  19854298.795   -10443586.375 7  -8046952.58122        25.000           1.563
  23370745.982    -1278813.690 5   -758960.59621        10.250           0.344
 91  5 23 22 30 59.9980000  0  4G 2G 6G13G12
  21194973.522     1729317.525 7   1336553.34222        23.750           2.281
  20454645.693     -377091.002 6   -283575.78122        19.500           2.063
  19848482.928   -10474149.600 7  -8070768.06722        25.000           1.594
  23359175.186    -1339603.654 5   -806329.38221         9.000           0.281
 91  5 23 22 31 14.9980000  0  4G 2G 6G13G12
  21197504.279     1742622.044 7   1346920.47922        23.500           2.156
  20456879.897     -365339.622 6   -274418.87122        18.750           1.938
  19842693.459   -10504571.270 7  -8094473.25922        25.250           1.625
  23347610.818    -1400383.219 5   -853690.05521         8.500           0.250
 91  5 23 22 31 29.9980000  0  4G 2G 6G13G12
  21200044.857     1755974.745 7   1357325.15922        23.250           2.063
  20459139.834     -353469.806 6   -265169.66622        19.250           2.000
  19836931.607   -10534852.683 7  -8118069.15022        25.250           1.625
  23336045.873    -1461153.117 5   -901043.20021         9.000           0.188
 91  5 23 22 31 44.9980000  0  4G 2G 6G13G12
  21202594.061     1769372.581 7   1367765.01422        23.250           2.125
  20461420.982     -341484.602 6   -255830.56822        19.250           2.000
  19831194.225   -10564996.620 7  -8141557.91922        25.000           1.656
  23324478.428    -1521916.228 5   -948391.04121         9.750           0.313
 91  5 23 22 31 59.9980000  0  4G 2G 6G13G12
  21205154.311     1782821.550 7   1378244.71222        23.500           2.156
  20463726.748     -329378.013 6   -246396.86622        19.250           1.938
  19825486.420   -10594997.239 7  -8164935.01322        25.250           1.594
  23312922.381    -1582666.263 5   -995728.73121        10.000           0.281
 91  5 23 22 32 14.9980000  0  4G 2G 6G13G12
  21207721.873     1796323.767 7   1388765.89722        22.750           2.094
  20466057.022     -317147.870 6   -236866.90022        19.500           1.969
  19819806.389   -10624852.088 7  -8188198.52322        25.250           1.531
  23301368.373    -1643400.835 5  -1043054.34321        10.750           0.344
 91  5 23 22 32 29.9980000  0  4G 2G 6G13G12
  21210299.850     1809877.595 7   1399327.30422        23.250           2.281
  20468404.889     -304795.889 6   -227241.98922        18.750           2.031
  19814149.967   -10654562.817 7  -8211349.72322        24.750           1.563
  23289808.732    -1704121.295 5  -1090368.97921         9.750           0.250
 91  5 23 22 32 44.9980000  0  4G 2G 6G13G12
  21212892.826     1823480.930 7   1409927.28622        23.250           2.094
  20470775.170     -292324.115 6   -217523.74222        18.750           2.000
  19808522.842   -10684131.474 7  -8234390.23322        24.500           1.594
  23278262.811    -1764829.590 5  -1137674.09821        10.250           0.375
 91  5 23 22 32 59.9980000  0  4G 2G 6G13G12
  21215486.537     1837131.377 7   1420563.97022        23.250           2.250
  20473171.467     -279735.262 6   -207714.25422        19.250           2.094
  19802924.006   -10713560.860 7  -8257322.20122        24.250           1.563
  23266707.311    -1825528.012 5  -1184971.56621         9.750           0.344
 91  5 23 22 33 14.9980000  0  4G 2G 6G13G12
  21218093.928     1850830.741 7   1431238.77722        23.500           2.031
  20475592.045     -267027.276 6   -197811.93222        19.000           1.844
  19797351.068   -10742848.881 7  -8280144.02922        24.500           1.500
  23255156.107    -1886214.332 5  -1232259.59121         9.250           0.313
 91  5 23 22 33 29.9980000  0  4G 2G 6G13G12
  21220714.506     1864578.728 7   1441951.47622        24.250           2.031
  20478030.420     -254200.606 6   -187817.13422        19.250           1.969
  19791806.037   -10771995.585 7  -8302855.72922        24.750           1.625
  23243609.100    -1946888.623 5  -1279538.21421         9.000           0.219
 91  5 23 22 33 44.9980000  0  4G 2G 6G13G12
  21223332.725     1878376.823 7   1452703.20722        23.250           1.969
  20480499.514     -241253.563 6   -177728.53622        19.250           1.938
  19786283.647   -10800999.640 7  -8325456.28622        24.250           1.594
  23232065.201    -2007548.989 5  -1326806.01121         9.500           0.344
 91  5 23 22 33 59.9980000  0  4G 2G 6G13G12
  21225976.897     1892229.780 7   1463497.70122        23.750           1.969
  20482981.928     -228181.632 6   -167542.63022        19.000           1.969
  19780795.459   -10829856.430 7  -8347942.08421        24.500           1.438
  23220531.217    -2068190.517 5  -1374059.15921        10.250           0.344
 91  5 23 22 34 14.9980000  0  4G 2G 6G13G12
  21228618.084     1906128.823 7   1474328.09322        24.250           2.063
  20485495.217     -214993.616 6   -157266.26422        19.250           2.000
  19775328.928   -10858574.534 7  -8370319.81222        24.250           1.531
  23208993.607    -2128821.759 5  -1421304.24921        10.250           0.250
 91  5 23 22 34 29.9980000  0  4G 2G 6G13G12
  21231274.022     1920073.921 7   1485194.38622        23.750           2.125
  20488021.131     -201689.451 6   -146899.39222        19.250           2.063
  19769890.412   -10887153.971 7  -8392589.50022        24.500           1.594
  23197455.982    -2189442.421 5  -1468541.08321        10.250           0.313
 91  5 23 22 34 44.9980000  0  4G 2G 6G13G12
  21233932.428     1934061.984 7   1496094.15522        24.000           2.031
  20490579.725     -188272.198 6   -136444.40322        19.500           2.031
  19764479.459   -10915597.772 7  -8414753.48821        25.000           1.406
  23185920.006    -2250055.176 5  -1515771.81221         8.750           0.406
 91  5 23 22 34 59.9980000  0  4G 2G 6G13G12
  21236603.272     1948096.496 7   1507030.11122        23.500           2.094
  20493153.443     -174738.466 6   -125898.64022        19.250           1.938
  19759090.654   -10943902.584 7  -8436809.18122        24.500           1.500
  23174388.436    -2310656.380 5  -1562993.48521         9.500           0.500
 91  5 23 22 35 14.9980000  0  4G 2G 6G13G12
  21239288.162     1962187.485 7   1518010.08022        23.500           2.031
  20495751.334     -161078.291 6   -115254.36422        19.750           1.813
  19753735.037   -10972058.367 7  -8458748.74221        24.750           1.438
  23162857.912    -2371235.851 5  -1610198.20621        10.250           0.156
 91  5 23 22 35 29.9980000  0  4G 2G 6G13G12
  21241979.584     1976330.761 7   1529030.80422        23.500           2.031
  20498375.568     -147295.907 6   -104514.85522        19.500           1.969
  19748404.397   -11000069.205 7  -8480575.35821        25.500           1.406
  23151330.576    -2431797.335 5  -1657388.98021         9.500           0.344
 91  5 23 22 35 44.9980000  0  4G 2G 6G13G12
  21244679.920     1990531.005 7   1540095.90222        23.500           2.031
  20501024.545     -133386.643 7    -93676.48422        20.000           1.969
  19743101.482   -11027930.489 7  -8502285.44122        24.750           1.500
  23139815.678    -2492336.003 5  -1704561.95721        10.000           0.344
 91  5 23 22 35 59.9980000  0  4G 2G 6G13G12
  21247390.022     2004782.026 7   1551200.57622        23.500           2.031
  20503693.100     -119356.891 7    -82744.22722        20.000           1.969
  19737826.404   -11055648.385 7  -8523883.78821        24.750           1.406
  23128303.920    -2552857.853 5  -1751721.79821        10.000           0.281
 91  5 23 22 36 14.9980000  0  4G 2G 6G13G12
  21250110.990     2019076.841 7   1562339.36922        23.750           2.000
  20506385.467     -105213.453 7    -71723.37422        20.000           1.938
  19732577.803   -11083229.779 7  -8545375.77621        25.000           1.469
  23116788.865    -2613369.597 5  -1798873.78521         9.250           0.313
 91  5 23 22 36 29.9980000  0  4G 2G 6G13G12
  21252842.178     2033423.517 7                        23.500
  20509099.857      -90948.418 7                        20.000
  19727356.318   -11110666.656 7  -8566755.14921        25.000           1.469
  23105273.607    -2673862.804 5  -1846011.32421         9.500           0.344
 91  5 23 22 36 44.9980000  0  4G 2G 6G13G12
  21255580.107     2047821.871 7                        23.250
  20511837.061      -76561.984 7                        20.250
  19722164.904   -11137959.300 7  -8588022.13821        25.000           1.375
  23093761.037    -2734337.567 5  -1893134.47621         9.250           0.438
 91  5 23 22 36 59.9980000  0  4G 2G 6G13G12
  21258328.397     2062272.378 7                        23.000
  20514597.701      -62053.659 6                        19.750
  19716997.873   -11165107.140 7  -8609176.29221        25.250           1.469
  23082263.537    -2794793.025 5  -1940242.61421        10.000           0.344
 91  5 23 22 37 14.9980000  0  4G 2G 6G13G12
  21261089.311     2076774.090 7   1607298.17322        22.750           2.094
  20517384.318      -47424.543 7    -26693.12622        20.250           2.031
  19711858.647   -11192111.137 7  -8630218.36121        25.000           1.469
  23070757.764    -2855229.964 5  -1987336.33221         9.500           0.344
 91  5 23 22 37 29.9980000  0  4G 2G 6G13G12
  21263859.897     2091329.562 7   1618640.06622        23.000           2.094
  20520190.295      -32672.034 7    -15197.68022        20.000           1.969
  19706747.014   -11218968.723 7  -8651146.34621        24.500           1.375
  23059261.107    -2915645.382 5  -2034413.26921         9.000           0.469
 91  5 23 22 37 44.9980000  0  4G 2G 6G13G12
  21266639.975     2105938.534 7   1630023.65522        22.750           2.094
  20523018.334      -17796.359 6     -3606.26522        19.500           2.031
  19701664.826   -11245680.124 7  -8671960.41522        25.250           1.531
  23047772.240    -2976039.327 5  -2081473.39921         9.250           0.313
 91  5 23 22 37 59.9980000  0  4G 2G 6G13G12
  21269433.162     2120607.049 7   1641453.64422        22.500           1.906
  20525873.639       -2791.539 7      8085.78022        20.250           1.906
  19696609.873   -11272239.214 7  -8692655.79522        24.750           1.500
  23036283.045    -3036405.429 5  -2128511.89921         9.750           0.375
 91  5 23 22 38 14.9980000  0  4G 2G 6G13G12
  21272235.850     2135327.847 7   1652924.37322        23.000           1.938
  20528751.811       12334.949 6     19872.63822        19.750           2.063
  19691583.217   -11298653.463 7  -8713238.32921        24.750           1.469
  23024800.576    -3096750.775 5  -2175534.24321        10.250           0.438
 91  5 23 22 38 29.9980000  0  4G 2G 6G13G12
  21275044.170     2150107.866 7   1664441.25122        22.250           1.844
  20531657.154       27590.033 6     31759.70522        19.500           2.031
  19686586.537   -11324915.806 7  -8733702.48321        25.250           1.375
  23013319.045    -3157068.193 5  -2222534.80421        10.250           0.344
 91  5 23 22 38 44.9980000  0  4G 2G 6G13G12
  21277872.100     2164944.954 7   1676002.59922        23.000           2.031
  20534581.756       42971.740 6     43745.42622        19.500           1.969
  19681617.514   -11351028.397 7  -8754049.95721        24.750           1.375
  23001850.584    -3217359.393 5  -2269514.93021        11.250           0.344
 91  5 23 22 38 59.9980000  0  4G 2G 6G13G12
  21280703.506     2179841.102 7   1687609.95622        22.000           1.969
  20537533.584       58481.930 6     55831.26722        19.250           2.000
  19676677.248   -11376989.241 7  -8774279.17121        25.250           1.375
  22990380.139    -3277622.065 5  -2316472.82721        11.000           0.469
 91  5 23 22 39 14.9980000  0  4G 2G 6G13G12
  21283551.334     2194797.475 7   1699264.24922        22.500           1.938
  20540513.717       74121.605 7     68018.00622        20.250           1.938
  19671765.326   -11402797.276 7  -8794389.32721        25.000           1.438
  22978921.381    -3337854.976 5  -2363407.51821        11.000           0.438
 91  5 23 22 39 29.9980000  0  4G 2G 6G13G12
  21286407.912     2209809.600 7   1710961.98622        22.000           1.875
  20543508.287       89886.175 6     80302.07122        18.750           1.844
  19666884.178   -11428456.890 7  -8814383.82621        25.250           1.375
  22967465.959    -3398062.416 5  -2410322.39321        11.500           0.375
 91  5 23 22 39 44.9980000  0  4G 2G 6G13G12
  21289275.912     2224881.854 7   1722706.57922        21.750           1.969
  20546537.248      105780.146 7     92686.95322        20.000           2.031
  19662029.061   -11453963.607 7  -8834259.18221        25.250           1.344
  22956014.615    -3458239.513 5  -2457213.61821        11.250           0.375
 91  5 23 22 39 59.9980000  0  4G 2G 6G13G12
  21292153.990     2240007.476 7   1734492.74522        22.000           1.813
  20549581.006      121796.624 6    105167.30122        18.750           2.063
  19657204.826   -11479324.394 7  -8854020.83121        25.750           1.344
  22944567.568    -3518392.855 5  -2504086.31121        11.500           0.344
 91  5 23 22 40 14.9980000  0  4G 2G 6G13G12
  21295047.725     2255190.638 7   1746323.76222        22.250           1.906
  20552653.936      137939.711 6    117746.31722        19.250           2.031
  19652406.670   -11504535.255 7  -8873665.65021        25.500           1.469
  22933127.107    -3578517.933 6  -2550937.01521        12.000           0.531
 91  5 23 22 40 29.9980000  0  4G 2G 6G13G12
  21297943.334     2270427.613 7   1758196.70122        21.750           1.875
  20555751.897      154205.615 6    130421.01722        19.500           1.969
  19647638.115   -11529600.015 7  -8893196.62821        25.750           1.375
  22921688.834    -3638618.183 5  -2597768.35321        11.750           0.500
 91  5 23 22 40 44.9980000  0  4G 2G 6G13G12
  21300849.342     2285721.028 7   1770113.62722        21.000           1.844
  20558868.732      170596.986 6    143193.49622        19.500           2.031
  19642895.709   -11554515.806 7  -8912611.52821        26.000           1.313
  22910255.154    -3698690.795 5  -2644578.13321        11.000           0.406
 91  5 23 22 40 59.9980000  0  4G 2G 6G13G12
  21303774.982     2301071.430 7   1782074.95722        21.500           1.813
  20562011.342      187114.256 6    156064.06522        19.500           1.875
  19638183.170   -11579281.962 7  -8931909.82321        26.000           1.469
  22898831.920    -3758734.933 5  -2691365.73521        10.750           0.406
 91  5 23 22 41 14.9980000  0  4G 2G 6G13G12
  21306706.193     2316476.585 7   1794078.95322        20.750           1.969
  20565178.795      203755.232 6    169031.03822        19.750           2.000
  19633497.795   -11603900.965 7  -8951093.46121        25.750           1.313
  22887407.772    -3818752.476 5  -2738132.64621        11.000           0.438
 91  5 23 22 41 29.9980000  0  4G 2G 6G13G12
  21309646.459     2331931.877 7   1806122.00222        21.250           1.938
  20568369.850      220515.202 6    182090.72422        19.500           1.969
  19628839.975   -11628377.424 7  -8970166.02121        26.250           1.375
  22875988.701    -3878747.751 5  -2784882.16421        11.000           0.375
 91  5 23 22 41 44.9980000  0  4G 2G 6G13G12
  21312598.342     2347442.909 7   1818208.49722        21.500           1.906
  20571582.201      237399.777 6    195247.50822        19.000           1.938
  19624210.748   -11652705.725 7  -8989123.13421        25.750           1.375
  22864580.248    -3938714.975 5  -2831609.85621        11.500           0.344
 91  5 23 22 41 59.9980000  0  4G 2G 6G13G12
  21315558.998     2363010.317 7   1830338.90722        21.000           1.938
  20574820.842      254409.338 6    208501.68522        19.000           2.063
  19619609.693   -11676885.363 7  -9007964.40521        27.000           1.375
  22853172.389    -3998653.263 5  -2878314.98821        11.250           0.375
 91  5 23 22 42 14.9980000  0  4G 2G 6G13G12
  21318532.037     2378631.226 7   1842511.02222        21.000           1.813
  20578079.365      271541.029 6    221851.02222        19.250           2.063
  19615035.256   -11700919.035 7  -9026691.93921        25.750           1.344
  22841774.670    -4058565.168 6  -2924999.54021        12.000           0.375
 91  5 23 22 42 29.9980000  0  4G 2G 6G13G12
  21321514.006     2394308.613 7   1854727.13522        20.250           1.906
  20581364.467      288797.688 6    235297.73822        19.750           1.938
  19610490.256   -11724804.054 7  -9045303.64021        26.500           1.313
  22830381.318    -4118447.423 6  -2971661.00721        12.250           0.344
 91  5 23 22 42 44.9980000  0  4G 2G 6G13G12
  21324512.725     2410045.455 7   1866989.58222        21.000           1.781
  20584671.365      306182.254 6    248844.12622        19.000           1.969
  19605974.420   -11748537.441 7  -9063797.18021        26.500           1.344
  22818989.022    -4178296.715 6  -3018296.80521        12.250           0.375
 91  5 23 22 42 59.9980000  0  4G 2G 6G13G12
  21327517.107     2425843.347 7   1879299.60222        21.000           1.844
  20588001.717      323696.267 6    262491.37922        19.250           2.094
  19601487.209   -11772117.511 7  -9082171.25921        26.750           1.281
  22807599.662    -4238111.303 5  -3064905.56321        10.500           0.469
 91  5 23 22 43 14.9980000  0  4G 2G 6G13G12
  21330531.732     2441690.932 7   1891648.33722        20.000           1.844
  20591357.326      341328.318 6    276230.61722        19.500           2.000
  19597027.131   -11795555.816 7  -9100434.87121        27.000           1.250
  22796225.092    -4297902.230 5  -3111495.86521        11.250           0.500
 91  5 23 22 43 29.9980000  0  4G 2G 6G13G12
  21333562.662     2457599.714 7   1904044.76922        21.250           1.875
  20594737.725      359090.054 6    290070.89522        19.500           2.125
  19592595.248   -11818840.657 7  -9118578.90221        25.750           1.313
  22784860.522    -4357657.355 5  -3158058.27221        11.750           0.438
 91  5 23 22 43 44.9980000  0  4G 2G 6G13G12
  21336598.725     2473563.605 7   1916484.13522        21.250           1.813
  20598143.756      376975.187 6    304007.33722        19.000           2.094
  19588194.264   -11841978.348 7  -9136608.26521        26.750           1.344
  22773493.725    -4417382.751 5  -3204597.48821        11.750           0.438
 91  5 23 22 43 59.9980000  0  4G 2G 6G13G12
  21339645.240     2489584.458 7   1928967.89422        20.250           1.813
  20601569.811      394985.393 6    318041.22722        18.750           2.125
  19583818.764   -11864966.897 7  -9154521.42821        26.500           1.313
  22762133.873    -4477076.322 5  -3251111.94821        11.500           0.375
 91  5 23 22 44 14.9980000  0  4G 2G 6G13G12
  21342712.139     2505667.810 7   1941500.33422        21.500           1.844
  20605019.115      413126.217 6    332176.90722        19.250           2.031
  19579472.873   -11887800.845 7  -9172314.10621        25.750           1.250
  22750781.725    -4536732.251 6  -3297597.04021        12.000           0.500
 91  5 23 22 44 29.9970000  0  4G 2G 6G13G12
  21345777.415     2521810.450 7   1954078.99222        20.250           1.844
  20608498.892      431394.271 6    346411.72922        19.250           2.188
  19575158.149   -11910480.968 7  -9189986.93521        26.250           1.188
  22739433.618    -4596348.329 6  -3344051.12221        12.000           0.469
 91  5 23 22 44 44.9970000  0  4G 2G 6G13G12
  21348864.204     2538015.815 7   1966706.51922        21.000           1.781
  20611997.485      449792.934 6    360748.31522        19.500           2.188
  19570869.228   -11933009.041 7  -9207541.27721        25.750           1.375
  22728100.610    -4655931.167 6  -3390479.29021        12.000           0.531
 91  5 23 22 44 59.9970000  0  4G 2G 6G13G12
  21351957.399     2554279.143 7   1979379.20422        20.750           1.813
  20615522.337      468317.579 6    375183.07722        18.750           2.063
  19566611.321   -11955387.373 7  -9224978.93721        25.750           1.250
  22716766.720    -4715479.992 6  -3436880.93821        12.000           0.313
 91  5 23 22 45 14.9970000  0  4G 2G 6G13G12
  21355065.985     2570605.494 7   1992100.99922        21.250           1.719
  20619072.954      486973.057 6    389719.77622        19.000           2.094
  19562383.688   -11977610.714 7  -9242295.82221        26.500           1.250
  22705443.845    -4774989.410 5  -3483251.88421        11.750           0.469
 91  5 23 22 45 29.9970000  0  4G 2G 6G13G12
  21358182.259     2586992.918 7   2004870.40422        21.000           1.813
  20622644.728      505757.173 6    404356.72822        18.500           2.000
  19558184.587   -11999681.075 7  -9259493.51021        26.750           1.250
  22694128.774    -4834461.225 6  -3529593.51521        12.000           0.469
 91  5 23 22 45 44.9970000  0  4G 2G 6G13G12
  21361313.681     2603436.968 7   2017683.90722        20.750           1.656
  20626246.470      524665.481 6    419090.44922        19.500           2.031
  19554013.243   -12021603.142 7  -9276575.64021        26.250           1.281
  22682814.563    -4893899.630 6  -3575909.14621        12.000           0.500
 91  5 23 22 45 59.9970000  0  4G 2G 6G13G12
  21364455.298     2619943.430 7   2030546.05522        21.250           1.813
  20629871.399      543703.644 6    433925.34622        19.250           1.969
  19549869.204   -12043371.152 7  -9293537.71921        26.750           1.281
  22671511.360    -4953298.481 5  -3622193.92921        11.250           0.531
 91  5 23 22 46 14.9970000  0  4G 2G 6G13G12
  21367608.321     2636515.287 7   2043459.16122        21.000           1.781
  20633516.931      562874.599 6    448863.72622        18.750           2.094
  19545756.485   -12064982.273 7  -9310377.55121        26.250           1.125
  22660218.282    -5012654.564 5  -3668445.37321        11.750           0.531
 91  5 23 22 46 29.9970000  0  4G 2G 6G13G12
  21370770.142     2653149.900 6   2056421.16322        19.250           1.563
  20637189.595      582175.736 6    463903.53922        19.000           1.969
  19541674.845   -12086438.962 7  -9327097.04421        27.250           1.250
  22648927.134    -5071970.082 6  -3714665.22321        12.000           0.563
 91  5 23 22 46 44.9970000  0  4G 2G 6G13G12
  21373950.954     2669845.338 7   2069430.55722        20.500           1.719
  20640886.243      601605.055 6    479043.24222        19.000           1.969
  19537618.212   -12107743.352 7  -9343697.87321        26.000           1.250
  22637651.431    -5131246.743 6  -3760854.80221        13.000           0.469
 91  5 23 22 46 59.9970000  0  4G 2G 6G13G12
  21377138.782     2686592.969 7   2082480.62622        20.250           1.781
  20644610.688      621153.688 6    494275.91422        19.750           1.875
  19533594.165   -12128904.114 7  -9360186.77421        26.250           1.344
  22626377.571    -5190492.925 6  -3807020.62021        12.750           0.563
 91  5 23 22 47 14.9970000  0  4G 2G 6G13G12
  21380333.626     2703399.491 7   2095576.57822        20.250           1.750
  20648352.376      640828.372 6    509606.80622        18.750           1.938
  19529593.368   -12149914.608 7  -9376558.59021        26.250           1.406
  22615104.024    -5249701.671 5  -3853157.28721        10.750           0.531
 91  5 23 22 47 29.9970000  0  4G 2G 6G13G12
  21383542.899     2720266.475 7   2108719.64322        20.500           1.625
  20652120.563      660630.675 6    525037.13822        19.000           1.906
  19525624.970   -12170773.058 7  -9392811.92721        26.250           1.344
  22603848.345    -5308870.874 6  -3899263.11021        12.750           0.500
 91  5 23 22 47 44.9970000  0  4G 2G 6G13G12
  21386763.188     2737192.666 7   2121908.85622        20.500           1.688
  20655912.353      680559.164 6    540565.80022        19.250           1.969
  19521683.548   -12191481.085 7  -9408948.05421        25.250           1.375
  22592596.321    -5368001.638 6  -3945338.99521        13.000           0.656
 91  5 23 22 47 59.9970000  0  4G 2G 6G13G12
  21389996.478     2754172.017 7   2135139.47322        21.250           1.531
  20659726.063      700607.590 6    556187.92122        18.750           1.875
  19517771.353   -12212044.726 7  -9424971.66821        25.750           1.438
  22581352.345    -5427099.757 6  -3991389.44821        13.250           0.500
 91  5 23 22 48 14.9970000  0  4G 2G 6G13G12
  21393238.017     2771207.896 7   2148414.15622        20.250           1.594
  20663568.626      720779.411 6    571906.19622        19.500           1.875
  19513886.423   -12232460.694 7  -9440880.21721        25.500           1.469
  22570110.485    -5486161.419 6  -4037411.50021        12.500           0.500
 91  5 23 22 48 29.9970000  0  4G 2G 6G13G12
  21396491.712     2788301.840 7   2161734.07722        20.500           1.500
  20667427.009      741075.877 6    587721.58622        18.500           1.875
  19510029.696   -12252727.533 7  -9456672.56121        25.750           1.344
  22558878.540    -5545185.084 6  -4083403.93321        13.000           0.531
 91  5 23 22 48 44.9970000  0  4G 2G 6G13G12
  21399752.931     2805449.904 7   2175096.15822        20.250           1.625
  20671315.438      761493.080 6    603631.07122        19.250           1.875
  19506201.134   -12272849.218 7  -9472351.79421        25.750           1.375
  22547653.024    -5604174.222 6  -4129369.46921        13.250           0.656
 91  5 23 22 48 59.9970000  0  4G 2G 6G13G12
  21403029.478     2822657.347 7   2188504.51621        20.750           1.406
  20675219.673      782036.107 6    619638.58922        18.750           1.906
  19502400.259   -12292820.586 7  -9487913.90521        26.000           1.375
  22536434.259    -5663123.264 6  -4175303.74021        12.250           0.625
 91  5 23 22 49 14.9970000  0  4G 2G 6G13G12
  21406318.767     2839923.541 7   2201958.65322        21.000           1.625
  20679154.532      802704.474 6    635743.78422        19.000           1.844
  19498627.603   -12312642.213 7  -9503359.33721        25.500           1.344
  22525229.149    -5722032.594 6  -4221207.08021        14.000           0.500
 91  5 23 22 49 29.9970000  0  4G 2G 6G13G12
  21409611.321     2857247.820 7   2215458.04622        20.250           1.594
  20683110.829      823497.167 6    651945.84322        18.750           1.781
  19494883.571   -12332314.755 7  -9518688.58921        25.500           1.281
  22514026.618    -5780902.653 6  -4267079.84321        13.750           0.531
 91  5 23 22 49 44.9970000  0  4G 2G 6G13G12
  21412919.743     2874631.074 7   2229003.39222        21.750           1.688
  20687095.157      844415.048 6    668245.45922        18.750           1.906
  19491170.032   -12351837.815 7  -9533901.37021        26.250           1.281
  22502830.993    -5839732.246 6  -4312921.04421        12.750           0.625
 91  5 23 22 49 59.9970000  0  4G 2G 6G13G12
  21416238.642     2892075.376 7   2242596.32422        20.000           1.625
  20691097.704      865460.113 6    684644.18322        19.000           1.875
  19487483.454   -12371209.102 7  -9548995.87821        26.250           1.313
  22491640.790    -5898518.954 6  -4358728.82921        13.500           0.594
 91  5 23 22 50 14.9970000  0  4G 2G 6G13G12
  21419569.360     2909579.729 7   2256236.03122        20.750           1.594
  20695125.821      886631.212 6    701141.11822        18.750           1.781
  19483825.399   -12390429.656 7  -9563972.93621        26.000           1.344
  22480466.063    -5957263.331 6  -4404503.63521        13.500           0.656
 91  5 23 22 50 29.9970000  0  4G 2G 6G13G12
  21422915.774     2927147.173 7   2269924.91422        20.750           1.500
  20699180.610      907931.418 6    717738.64622        18.750           1.719
  19480197.899   -12409496.749 7  -9578830.40721        26.500           1.219
  22469290.462    -6015962.250 6  -4450243.02421        12.250           0.531
 91  5 23 22 50 44.9970000  0  4G 2G 6G13G12
  21426267.079     2944774.710 6   2283660.61422        19.500           1.531
  20703256.728      929357.538 6    734434.29222        19.500           1.750
  19476595.962   -12428413.459 7  -9593570.70521        26.250           1.250
  22458132.087    -6074618.316 6  -4495949.02321        13.500           0.531
 91  5 23 22 50 59.9970000  0  4G 2G 6G13G12
  21429635.118     2962463.697 7   2297444.18822        20.500           1.500
  20707360.970      950910.733 6    751228.95922        19.000           1.719
  19473027.657   -12447178.252 7  -9608192.61621        27.000           1.219
  22446979.837    -6133229.934 6  -4541620.37321        13.250           0.531
 91  5 23 22 51 14.9970000  0  4G 2G 6G13G12
  21433012.157     2980214.209 6   2311275.72221        19.750           1.469
  20711484.157      972591.116 6    768122.73022        19.000           1.656
  19469484.688   -12465791.146 7  -9622696.16821        26.750           1.188
  22435830.782    -6191796.520 6  -4587256.64221        13.250           0.625
 91  5 23 22 51 29.9970000  0  4G 2G 6G13G12
  21436401.407     2998033.099 7   2325160.52121        20.000           1.375
  20715634.423      994405.400 6    785120.84122        18.500           1.656
  19465974.149   -12484245.483 7  -9637076.17221        27.000           1.313
  22424698.767    -6250310.994 6  -4632852.31821        13.500           0.438
 91  5 23 22 51 44.9970000  0  4G 2G 6G13G12
  21439803.978     3015911.554 7   2339091.74522        20.000           1.594
  20719811.095     1016344.630 6    802216.31522        19.500           1.719
  19462489.501   -12502550.175 7  -9651339.56921        26.250           1.250
  22413571.204    -6308781.964 6  -4678414.08021        12.750           0.656
 91  5 23 22 51 59.9970000  0  4G 2G 6G13G12
  21443221.517     3033845.558 7   2353066.24922        20.750           1.500
  20724005.376     1038404.755 6    819405.99222        18.750           1.719
  19459034.892   -12520709.310 7  -9665489.54621        26.750           1.281
  22402449.345    -6367213.109 6  -4723944.80821        12.750           0.625
 91  5 23 22 52 14.9970000  0  4G 2G 6G13G12
  21446641.610     3051838.135 6   2367086.39521        19.750           1.406
  20728230.040     1060588.512 6    836691.99922        19.000           1.688
  19455606.438   -12538720.061 7  -9679523.89321        26.750           1.313
  22391341.743    -6425601.117 6  -4769441.91721        13.250           0.625
 91  5 23 22 52 29.9970000  0  4G 2G 6G13G12
  21450076.837     3069889.082 7   2381152.03221        20.250           1.406
  20732477.931     1082895.639 6    854074.13522        19.000           1.750
  19452208.173   -12556582.622 7  -9693442.77921        27.000           1.313
  22380235.438    -6483946.020 6  -4814905.45321        12.750           0.594
 91  5 23 22 52 44.9970000  0  4G 2G 6G13G12
  21453520.954     3088006.662 6   2395269.57222        18.500           1.500
  20736745.376     1105334.324 6    871558.78822        18.750           1.594
  19448840.384   -12574288.803 7  -9707239.80221        27.500           1.281
  22369147.681    -6542238.996 6  -4860328.52021        13.750           0.594
 91  5 23 22 52 59.9970000  0  4G 2G 6G13G12
  21456985.876     3106185.384 7   2409434.76922        20.250           1.594
  20741037.681     1127899.072 6    889141.67822        18.250           1.563
  19445498.618   -12591844.043 7  -9720919.21921        27.250           1.281
  22358062.923    -6600485.288 6  -4905715.21721        13.500           0.625
 91  5 23 22 53 14.9970000  0  4G 2G 6G13G12
  21460456.634     3124431.626 6   2423652.57222        19.500           1.656
  20745355.907     1150596.089 6    906827.63322        18.000           1.625
  19442188.103   -12609242.151 7  -9734476.19321        27.250           1.219
  22346989.181    -6658678.324 6  -4951060.41721        13.000           0.656
 91  5 23 22 53 29.9970000  0  4G 2G 6G13G12
  21463939.290     3142735.060 6   2437914.93422        19.000           1.594
  20749699.110     1173414.881 6    924608.46522        18.500           1.656
  19438903.556   -12626493.564 7  -9747918.85521        27.250           1.250
  22335923.048    -6716828.026 6  -4996371.83421        13.250           0.594
 91  5 23 22 53 44.9970000  0  4G 2G 6G13G12
  21467432.384     3161096.464 6   2452222.47322        19.500           1.563
  20754065.079     1196356.115 6    942484.72222        18.500           1.625
  19435649.204   -12643597.890 7  -9761246.91021        27.250           1.281
  22324865.993    -6774933.383 6  -5041648.70721        13.250           0.625
 91  5 23 22 53 59.9970000  0  4G 2G 6G13G12
  21470941.688     3179517.999 7   2466576.87821        20.000           1.438
  20758454.017     1219421.931 6    960458.05222        18.500           1.656
  19432423.657   -12660552.718 7  -9774458.46221        27.000           1.281
  22313816.001    -6832991.800 6  -5086889.01221        13.000           0.688
 91  5 23 22 54 14.9970000  0  4G 2G 6G13G12
  21474454.181     3198001.001 6   2480979.17421        18.750           1.469
  20762869.134     1242613.406 6    978529.29622        19.250           1.781
  19429224.837   -12677356.943 7  -9787552.66821        27.000           1.375
  22302776.907    -6891001.786 6  -5132091.58021        13.000           0.594
 91  5 23 22 54 29.9970000  0  4G 2G 6G13G12
  21477985.071     3216542.226 6   2495426.83221        19.750           1.438
  20767304.220     1265927.174 6    996695.82422        18.000           1.688
  19426055.399   -12694014.060 7  -9800532.24321        26.750           1.188
  22291749.696    -6948966.263 6  -5177258.67321        14.250           0.688
 91  5 23 22 54 44.9970000  0  4G 2G 6G13G12
  21481523.259     3235152.994 6   2509928.69222        19.250           1.500
  20771768.728     1289374.744 6   1014966.61822        18.000           1.688
  19422916.720   -12710512.518 7  -9813388.19121        27.500           1.188
  22280728.204    -7006873.404 6  -5222381.09221        12.750           0.531
 91  5 23 22 54 59.9970000  0  4G 2G 6G13G12
  21485077.923     3253826.922 6   2524479.75622        19.250           1.563
  20776252.923     1312949.313 6   1033336.36722        18.250           1.719
  19419805.306   -12726858.786 7  -9826125.54021        27.000           1.281
  22269715.970    -7064729.422 6  -5267463.67621        13.500           0.594
 91  5 23 22 55 14.9970000  0  4G 2G 6G13G12
  21488645.009     3272560.472 6   2539077.27622        18.750           1.531
  20780763.587     1336647.331 6   1051802.32822        19.000           1.719
  19416723.579   -12743056.691 7  -9838747.28921        27.000           1.281
  22258718.884    -7122537.599 6  -5312508.98921        13.750           0.594
 91  5 23 22 55 29.9970000  0  4G 2G 6G13G12
  21492219.704     3291357.179 6   2553724.01021        18.250           1.438
  20785293.149     1360472.312 6   1070367.20222        18.000           1.625
  19413668.087   -12759102.589 7  -9851250.58421        27.000           1.188
  22247726.532    -7180293.917 6  -5357513.88921        14.000           0.656
 91  5 23 22 55 44.9970000  0  4G 2G 6G13G12
  21495811.899     3310218.608 6   2568421.18321        19.250           1.469
  20789855.431     1384425.559 6   1089032.04122        18.500           1.656
  19410645.415   -12774995.156 7  -9863634.41421        26.500           1.250
  22236747.853    -7237996.687 6  -5402477.06521        13.750           0.594
 91  5 23 22 55 59.9970000  0  4G 2G 6G13G12
  21499410.196     3329141.953 6   2583166.59722        19.000           1.500
  20794437.938     1408504.171 6   1107794.55122        18.250           1.719
  19407649.399   -12790737.329 7  -9875901.03921        27.000           1.219
  22225776.165    -7295648.250 6  -5447400.34121        13.750           0.625
 91  5 23 22 56 14.9970000  0  4G 2G 6G13G12
  21503025.165     3348128.681 6   2597961.40821        19.000           1.469
  20799042.782     1432709.618 6   1126655.89822        18.500           1.813
  19404683.212   -12806327.689 7  -9888049.36921        26.250           1.344
  22214818.103    -7353246.803 6  -5492282.29721        14.750           0.656
 91  5 23 22 56 29.9970000  0  4G 2G 6G13G12
  21506648.759     3367175.970 6   2612803.39321        19.500           1.469
  20803673.563     1457038.741 6   1145613.61522        18.000           1.844
  19401743.782   -12821769.327 7  -9900081.82321        26.500           1.281
  22203864.040    -7410795.075 6  -5537125.08021        14.000           0.719
 91  5 23 22 56 44.9970000  0  4G 2G 6G13G12
  21510290.017     3386292.677 6   2627699.49221        19.250           1.375
  20808324.962     1481500.258 6   1164674.49722        17.750           1.781
  19398835.743   -12837053.364 7  -9911991.46221        26.500           1.313
  22192926.657    -7468283.861 6  -5581921.50921        15.000           0.688
 91  5 23 22 56 59.9970000  0  4G 2G 6G13G12
  21513934.720     3405479.655 6   2642650.33221        19.250           1.438
  20813006.243     1506095.056 6   1183839.22422        18.000           1.750
  19395957.657   -12852179.122 7  -9923777.76821        26.750           1.313
  22181994.235    -7525712.074 6  -5626670.74021        13.500           0.625
 91  5 23 22 57 14.9970000  0  4G 2G 6G13G12
  21517600.157     3424732.445 6   2657652.46121        18.000           1.406
  20817711.056     1530818.605 6   1203104.29222        18.250           1.781
  19393109.384   -12867151.171 7  -9935444.30821        27.000           1.375
  22171077.048    -7583083.562 6  -5671375.78021        14.250           0.813
 91  5 23 22 57 29.9970000  0  4G 2G 6G13G12
  21521274.587     3444046.130 6   2672702.03721        18.500           1.375
  20822441.517     1555665.671 6   1222465.59922        18.250           1.750
  19390287.985   -12881974.786 7  -9946995.18021        26.750           1.344
  22160174.915    -7640403.121 6  -5716040.34321        15.500           0.781
 91  5 23 22 57 44.9970000  0  4G 2G 6G13G12
  21524963.259     3463426.828 6   2687803.83621        18.250           1.313
  20827194.063     1580642.282 6   1241927.85622        18.500           1.625
  19387496.970   -12896643.681 7  -9958425.49321        26.500           1.281
  22149273.673    -7697664.369 6  -5760659.47121        14.750           0.719
 91  5 23 22 57 59.9970000  0  4G 2G 6G13G12
  21528664.892     3482870.635 6   2702954.79521        18.500           1.344
  20831971.845     1605744.330 6   1261487.84922        19.000           1.719
  19384733.431   -12911161.897 7  -9969738.39121        26.250           1.438
  22138389.438    -7754870.964 6  -5805236.03021        15.000           0.813
 91  5 23 22 58 14.9970000  0  4G 2G 6G13G12
  21532377.142     3502376.976 6   2718154.49721        19.000           1.344
  20836771.829     1630971.133 6   1281145.05822        17.500           1.594
  19381998.688   -12925530.313 7  -9980934.57021        26.500           1.250
  22127513.751    -7812023.103 6  -5849770.13621        15.500           0.750
 91  5 23 22 58 29.9970000  0  4G 2G 6G13G12
  21536099.454     3521947.489 6   2733404.19721        18.250           1.406
  20841596.274     1656324.372 6   1300900.79022        18.000           1.656
  19379294.985   -12939747.204 7  -9992012.66921        27.000           1.313
  22116649.907    -7869118.719 6  -5894260.20121        15.750           0.719
 91  5 23 22 58 44.9970000  0  4G 2G 6G13G12
  21539837.517     3541583.330 6   2748704.80121        18.500           1.313
  20846442.157     1681804.973 6   1320755.75922        17.750           1.781
  19376618.103   -12953811.590 7 -10002971.93621        26.750           1.375
  22105795.071    -7926156.285 6  -5938705.04721        15.250           0.781
 91  5 23 22 58 59.9970000  0  4G 2G 6G13G12
  21543588.079     3561281.757 6   2764054.17821        19.000           1.375
  20851317.868     1707410.177 6   1340707.81622        17.500           1.750
  19373971.860   -12967726.008 7 -10013814.34121        27.250           1.250
  22094950.470    -7983138.216 6  -5983106.51421        15.250           0.750
 91  5 23 22 59 14.9970000  0  4G 2G 6G13G12
  21547347.798     3581053.194 6   2779460.45021        18.000           1.406
  20856214.353     1733150.226 6   1360764.94422        17.750           1.719
  19371353.884   -12981480.140 7 -10024531.85421        27.000           1.406
  22084121.017    -8040053.814 6  -6027456.32121        15.250           0.750
 91  5 23 22 59 29.9970000  0  4G 2G 6G13G12
  21551123.946     3600886.822 6   2794915.17321        18.500           1.469
  20861136.415     1759014.027 6   1380918.51722        17.500           1.688
  19368763.353   -12995085.250 7 -10035133.24321        26.750           1.250
  22073300.751    -8096913.640 6  -6071762.64921        15.250           0.656
 91  5 23 22 59 44.9970000  0  4G 2G 6G13G12
  21554907.907     3620788.342 6   2810422.78221        18.500           1.344
  20866083.954     1785007.345 6   1401173.00522        18.000           1.625
  19366204.493   -13008535.706 7 -10045614.12121        26.750           1.219
  22062490.735    -8153711.479 6  -6116020.69621        15.500           0.813
 91  5 23 22 59 59.9970000  0  4G 2G 6G13G12
  21558711.134     3640754.842 6   2825981.05121        18.000           1.313
  20871053.462     1811127.056 6   1421525.98922        17.500           1.656
  19363673.399   -13021834.828 7 -10055977.07821        27.000           1.219
  22051694.306    -8210450.105 6  -6160232.59521        15.250           0.813
 91  5 23 23  0 14.9970000  0  4G 2G 6G13G12
  21562521.860     3660788.336 6   2841591.51021        17.750           1.344
  20876051.282     1837375.061 6   1441978.92822        18.500           1.625
  19361172.329   -13034980.617 7 -10066220.55321        26.500           1.188
  22040913.103    -8267127.118 6  -6204396.47221        16.750           0.844
 91  5 23 23  0 29.9970000  0  4G 2G 6G13G12
  21566345.853     3680885.842 6   2857251.84821        17.500           1.313
  20881065.399     1863747.931 6   1462529.16222        18.250           1.563
  19358698.946   -13047975.950 7 -10076346.78921        26.750           1.344
  22030137.798    -8323745.266 6  -6248514.49621        16.000           0.875
 91  5 23 23  0 44.9970000  0  4G 2G 6G13G12
  21570182.782     3701050.116 6   2872964.21121        17.750           1.250
  20886108.118     1890248.541 6   1483178.95122        17.750           1.531
  19356255.493   -13060818.405 7 -10086353.90021        27.250           1.250
  22019370.485    -8380301.495 6  -6292584.26021        15.250           0.906
 91  5 23 23  0 59.9970000  0  4G 2G 6G13G12
  21574034.712     3721276.555 6   2888725.02221        18.750           1.219
  20891173.392     1916872.104 6   1503924.53622        17.500           1.625
  19353840.673   -13073512.554 7 -10096245.44521        26.750           1.281
  22008623.063    -8436800.013 6  -6336609.05821        15.750           0.813
 91  5 23 23  1 14.9970000  0  4G 2G 6G13G12
  21577894.712     3741567.797 6   2904536.32721        18.250           1.219
  20896266.157     1943621.210 6   1524767.94322        17.750           1.719
  19351453.009   -13086055.756 7 -10106019.37421        26.750           1.313
  21997881.688    -8493237.816 6  -6380586.55521        16.000           0.875
 91  5 23 23  1 29.9970000  0  4G 2G 6G13G12
  21581766.048     3761922.596 6   2920397.15821        18.500           1.313
  20901379.837     1970494.347 6   1545708.00322        18.250           1.625
  19349093.946   -13098449.382 7 -10115676.75321        26.250           1.188
  21987155.165    -8549615.984 6  -6424517.58121        16.000           0.844
 91  5 23 23  1 44.9970000  0  4G 2G 6G13G12
  21585656.196     3782350.017 6   2936314.57021        18.500           1.375
  20906520.548     1997500.446 6   1566751.66922        17.750           1.594
  19346765.712   -13110684.740 7 -10125210.79921        26.250           1.250
  21976437.181    -8605925.117 6  -6468394.79921        15.750           0.875
 91  5 23 23  1 59.9970000  0  4G 2G 6G13G12
  21589552.657     3802842.194 6   2952282.44021        17.250           1.281
  20911680.157     2024631.488 6   1587892.68222        17.750           1.594
  19344465.071   -13122769.852 7 -10134627.78521        26.500           1.281
  21965735.673    -8662172.713 6  -6512224.08521        17.000           0.875
 91  5 23 23  2 14.9970000  0  4G 2G 6G13G12
  21593467.790     3823403.280 6   2968304.01121        18.500           1.281
  20916870.478     2051891.529 6   1609134.23521        17.750           1.469
  19342194.540   -13134700.753 7 -10143924.59621        26.250           1.375
  21955045.462    -8718354.278 6  -6556001.92121        16.250           0.906
 91  5 23 23  2 29.9970000  0  4G 2G 6G13G12
  21597391.462     3844028.036 6   2984375.18921        17.500           1.281
  20922078.603     2079275.138 6   1630472.06222        17.250           1.500
  19339954.845   -13146482.358 7 -10153105.07221        27.000           1.313
  21944363.392    -8774474.742 6  -6599732.14121        16.000           0.844
 91  5 23 23  2 44.9970000  0  4G 2G 6G13G12
  21601327.595     3864714.330 6   3000494.31721        17.500           1.250
  20927313.103     2106780.057 6   1651904.42122        17.000           1.625
  19337740.423   -13158117.304 7 -10162171.27621        27.250           1.313
  21933698.610    -8830535.867 6  -6643416.10921        16.250           0.781
 91  5 23 23  2 59.9970000  0  4G 2G 6G13G12
  21605279.751     3885464.584 6   3016663.30021        18.000           1.313
  20932573.618     2134408.523 6   1673433.03722        17.250           1.594
  19335552.571   -13169603.232 7 -10171121.35121        26.750           1.313
  21923041.376    -8886534.856 6  -6687051.67221        16.750           0.781
 91  5 23 23  3 14.9970000  0  4G 2G 6G13G12
  21609237.368     3906278.589 6   3032881.94521        18.000           1.188
  20937852.720     2162160.157 6   1695057.64521        16.750           1.344
  19333396.251   -13180940.592 7 -10179955.66621        27.000           1.188
  21912395.735    -8942471.634 6  -6730638.74621        16.000           0.781
 91  5 23 23  3 29.9970000  0  4G 2G 6G13G12
  21613206.009     3927158.240 6   3049151.75321        16.500           1.156
  20943156.993     2190036.873 6   1716779.70421        16.750           1.406
  19331270.806   -13192127.421 8 -10188672.67421        28.250           1.313
  21901763.923    -8998343.854 6  -6774175.52221        16.250           0.813
 91  5 23 23  3 44.9970000  0  4G 2G 6G13G12
  21617198.540     3948105.193 6   3065473.99821        18.000           1.125
  20948488.681     2218040.027 6   1738600.30822        17.500           1.500
  19329168.665   -13203162.382 7 -10197271.35121        27.250           1.406
  21891140.962    -9054149.605 6  -6817660.51421        16.250           0.969
 91  5 23 23  3 59.9970000  0  4G 2G 6G13G12
  21621198.415     3969123.234 6   3081851.64321        17.750           1.156
  20953839.470     2246173.433 6   1760522.38922        17.250           1.531
  19327097.165   -13214041.811 7 -10205748.83621        27.250           1.344
  21880537.774    -9109884.834 6  -6861090.55021        16.750           0.875
 91  5 23 23  4 14.9970000  0  4G 2G 6G13G12
  21625208.110     3990205.004 6   3098278.94521        17.500           1.156
  20959217.360     2274429.333 6   1782539.91421        17.000           1.469
  19325056.376   -13224773.122 7 -10214110.90121        27.250           1.344
  21869941.392    -9165556.584 6  -6904471.12721        16.500           0.875
 91  5 23 23  4 29.9970000  0  4G 2G 6G13G12
  21629234.235     4011352.662 6   3114757.59321        18.000           1.188
  20964618.103     2302809.679 6   1804654.41721        17.000           1.375
  19323042.860   -13235354.554 7 -10222356.17821        27.250           1.313
  21859364.095    -9221162.273 6  -6947800.21421        17.500           0.906
 91  5 23 23  4 44.9970000  0  4G 2G 6G13G12
  21633271.595     4032564.355 6   3131286.12921        17.500           1.250
  20970040.978     2331312.669 6   1826864.49121        17.000           1.406
  19321057.759   -13245788.198 7 -10230486.29321        27.250           1.313
  21848793.798    -9276703.491 6  -6991079.06221        16.750           0.750
 91  5 23 23  4 59.9970000  0  4G 2G 6G13G12
  21637319.470     4053841.878 6   3147865.95821        17.500           1.250
  20975485.540     2359939.965 6   1849171.42221        16.250           1.469
  19319100.063   -13256072.227 7 -10238499.83321        27.000           1.313
  21838238.462    -9332178.119 6  -7034306.03521        17.250           0.906
 91  5 23 23  5 14.9970000  0  4G 2G 6G13G12
  21641380.876     4075187.205 6   3164498.62721        17.500           1.188
  20980962.657     2388693.185 6   1871576.47921        17.000           1.438
  19317172.392   -13266204.619 7 -10246395.20921        26.750           1.375
  21827693.821    -9387583.728 6  -7077479.21921        17.000           0.938
 91  5 23 23  5 29.9970000  0  4G 2G 6G13G12
  21645453.548     4096600.634 6   3181184.35521        17.000           1.250
  20986456.634     2417572.808 6   1894080.02021        17.000           1.469
  19315273.001   -13276184.903 7 -10254172.06021        27.000           1.250
  21817163.188    -9442919.626 6  -7120598.07821        17.500           0.906
 91  5 23 23  5 44.9970000  0  4G 2G 6G13G12
  21649540.751     4118079.838 6   3197921.34721        17.250           1.156
  20991977.142     2446576.106 6   1916679.94821        17.500           1.469
  19313401.087   -13286015.880 7 -10261832.57221        26.500           1.281
  21806643.079    -9498187.999 6  -7163664.31821        17.000           0.844
 91  5 23 23  5 59.9970000  0  4G 2G 6G13G12
  21653641.907     4139624.568 6   3214709.39321        17.500           1.250
  20997517.845     2475702.652 6   1939375.90921        17.000           1.438
  19311558.845   -13295698.181 7 -10269377.23221        26.250           1.313
  21796142.134    -9553388.740 6  -7206677.86421        17.750           0.875
 91  5 23 23  6 14.9970000  0  4G 2G 6G13G12
  21657756.907     4161237.053 6   3231550.23721        17.500           1.219
  21003083.868     2504954.646 6   1962169.62521        16.500           1.406
  19309744.876   -13305229.589 7 -10276804.31421        26.750           1.250
  21785653.548    -9608519.184 6  -7249636.63621        17.750           0.844
 91  5 23 23  6 29.9970000  0  4G 2G 6G13G12
  21661878.282     4182919.163 6   3248445.33321        16.500           1.219
  21008677.204     2534333.743 6   1985062.36621        16.750           1.469
  19307962.032   -13314608.440 7 -10284112.52221        27.500           1.250
  21775172.165    -9663577.196 6  -7292538.96221        17.000           0.938
 91  5 23 23  6 44.9970000  0  4G 2G 6G13G12
  21666019.829     4204667.708 6   3265392.20421        17.500           1.094
  21014289.571     2563836.362 6   2008051.36022        16.500           1.500
  19306203.688   -13323838.136 7 -10291304.49621        26.750           1.344
  21764711.595    -9718565.649 6  -7335387.08921        17.750           0.906
 91  5 23 23  6 59.9970000  0  4G 2G 6G13G12
  21670169.509     4226479.577 6   3282388.42321        17.000           1.125
  21019925.423     2593459.603 6   2031134.35221        16.500           1.438
  19304475.274   -13332921.767 7 -10298382.65821        27.250           1.250
  21754259.376    -9773487.408 6  -7378183.23421        17.250           1.000
 91  5 23 23  7 14.9970000  0  4G 2G 6G13G12
  21674332.204     4248364.395 6   3299441.46821        16.250           1.188
  21025591.556     2623212.587 6   2054318.45421        17.250           1.406
  19302777.431   -13341850.158 8 -10305339.84721        28.000           1.281
  21743819.321    -9828332.531 6  -7420919.68021        16.000           1.031
 91  5 23 23  7 29.9970000  0  4G 2G 6G13G12
  21678515.313     4270318.870 6   3316548.80821        17.250           1.125
  21031274.415     2653091.948 6   2077601.01321        16.000           1.406
  19301106.540   -13350626.531 7 -10312178.59521        27.500           1.281
  21733398.329    -9883103.990 6  -7463598.71921        16.750           0.875
 91  5 23 23  7 44.9970000  0  4G 2G 6G13G12
  21682702.181     4292339.855 6   3333707.96421        16.000           1.063
  21036984.009     2683094.414 6   2100979.49621        16.500           1.438
  19299467.415   -13359254.227 8 -10318901.47621        28.750           1.313
  21722988.118    -9937804.464 6  -7506222.43721        17.000           0.938
 91  5 23 23  7 59.9970000  0  4G 2G 6G13G12
  21686908.978     4314426.854 6   3350918.55221        16.750           1.094
  21042716.603     2713219.497 6   2124453.54021        17.000           1.375
  19297850.587   -13367733.671 8 -10325508.84421        28.000           1.344
  21712596.899    -9992434.026 6  -7548790.90021        17.750           0.969
 91  5 23 23  8 14.9970000  0  4G 2G 6G13G12
  21691121.915     4336580.491 6   3368181.08621        16.750           1.094
  21048472.423     2743467.454 6   2148023.32521        16.500           1.438
  19296267.188   -13376064.683 8 -10332000.55021        29.000           1.281
  21702212.079   -10046991.774 6  -7591303.40621        17.000           0.969
 91  5 23 23  8 29.9970000  0  4G 2G 6G13G12
  21695349.024     4358802.131 6   3385496.59721        16.000           1.188
  21054252.751     2773839.478 6   2171689.78121        16.500           1.375
  19294708.642   -13384246.104 8 -10338375.69121        28.250           1.219
  21691846.860   -10101476.173 6  -7633758.76321        17.750           0.969
 91  5 23 23  8 44.9970000  0  4G 2G 6G13G12
  21699592.603     4381088.911 6   3402862.86421        17.250           1.188
  21060054.853     2804332.743 6   2195450.71721        15.750           1.375
  19293180.688   -13392280.698 7 -10344636.42721        27.750           1.281
  21681492.204   -10155889.445 6  -7676158.68021        18.250           0.906
 91  5 23 23  8 59.9970000  0  4G 2G 6G13G12
  21703847.196     4403444.213 6   3420282.53521        17.250           1.125
  21065879.306     2834950.214 6   2219308.42121        15.250           1.438
  19291680.524   -13400165.558 8 -10350780.48321        28.250           1.313
  21671149.524   -10210228.091 6  -7718500.47521        17.750           0.906
 91  5 23 23  9 14.9970000  0  4G 2G 6G13G12
  21708114.634     4425868.070 6   3437755.61021        17.000           0.969
  21071733.040     2865691.872 6   2243262.90921        16.750           1.344
  19290207.470   -13407900.738 7 -10356807.90621        27.250           1.344
  21660825.321   -10264491.705 6  -7760783.78621        17.750           1.094
 91  5 23 23  9 29.9970000  0  4G 2G 6G13G12
  21712392.626     4448358.930 6   3455280.92321        17.250           1.000
  21077604.915     2896555.876 6   2267312.72021        16.500           1.406
  19288763.884   -13415487.939 7 -10362720.01821        27.750           1.281
  21650510.884   -10318681.545 6  -7803009.60021        17.500           1.125
 91  5 23 23  9 44.9970000  0  4G 2G 6G13G12
  21716684.743     4470916.493 6   3472858.19721        17.250           0.969
  21083501.259     2927541.765 6   2291457.51421        16.250           1.219
  19287348.134   -13422927.544 7 -10368517.12821        27.750           1.344
  21640214.103   -10372797.568 6  -7845177.90621        18.250           1.063
 91  5 23 23  9 59.9970000  0  4G 2G 6G13G12
  21720990.298     4493532.111 6   3490480.70021        16.750           0.969
  21089421.696     2958640.877 6   2315690.53621        17.250           1.344
  19285960.103   -13430228.428 8 -10374206.13321        28.000           1.344
  21629928.642   -10426847.967 6  -7887295.07521        17.750           1.094
 91  5 23 23 10 14.9970000  0  4G 2G 6G13G12
  21725304.149     4516216.464 6   3508156.77821        16.250           0.844
  21095361.196     2989863.610 6   2340019.87321        16.500           1.406
  19284599.735   -13437379.940 8 -10379778.75421        28.500           1.219
  21619657.884   -10480821.856 6  -7929352.62121        17.750           1.094
 91  5 23 23 10 29.9970000  0  4G 2G 6G13G12
  21729633.868     4538967.142 6   3525884.54321        15.750           0.938
  21101327.087     3021207.492 6   2364443.62021        16.750           1.313
  19283264.540   -13444384.574 7 -10385236.92121        27.750           1.281
  21609401.579   -10534721.271 6  -7971352.13421        18.500           1.094
 91  5 23 23 10 44.9970000  0  4G 2G 6G13G12
  21733979.399     4561789.545 6   3543668.16321        15.750           0.875
  21107314.407     3052677.520 6   2388965.67421        16.250           1.313
  19281961.368   -13451237.370 8 -10390576.76621        28.250           1.313
  21599156.454   -10588540.455 6  -8013289.12921        18.250           1.031
 91  5 23 23 10 59.9970000  0  4G 2G 6G13G12
  21738332.751     4584677.659 6   3561503.01121        16.250           0.938
  21113326.368     3084267.486 6   2413581.16521        16.250           1.344
  19280683.524   -13457944.520 7 -10395803.12721        27.750           1.250
  21588928.798   -10642285.241 6  -8055168.16621        17.750           1.094
 91  5 23 23 11 14.9970000  0  4G 2G 6G13G12
  21742699.696     4607633.487 6   3579390.63521        15.250           0.906
  21119357.845     3115979.487 6   2438291.76121        16.250           1.313
  19279437.712   -13464503.958 8 -10400914.38421        28.500           1.156
  21578720.063   -10695953.122 6  -8096987.26221        19.500           1.063
 91  5 23 23 11 29.9970000  0  4G 2G 6G13G12
  21747084.860     4630659.619 6   3597333.02521        16.250           1.000
  21125417.704     3147815.794 6   2463099.21521        16.250           1.344
  19278217.931   -13470913.272 7 -10405908.66321        27.500           1.156
  21568522.298   -10749541.128 6  -8138744.13021        19.000           1.000
 91  5 23 23 11 44.9970000  0  4G 2G 6G13G12
  21751476.063     4653752.203 6   3615327.19221        15.750           0.969
  21131498.540     3179772.423 6   2488000.41721        16.250           1.344
  19277026.165   -13477176.731 8 -10410789.28521        28.000           1.250
  21558338.290   -10803052.825 6  -8180441.51921        18.250           1.031
 91  5 23 23 11 59.9970000  0  4G 2G 6G13G12
  21755884.649     4676909.402 6   3633371.71121        16.500           1.031
  21137603.813     3211847.311 6   2512993.77821        16.750           1.281
  19275861.243   -13483296.399 7 -10415557.86721        27.500           1.281
  21548169.767   -10856489.641 6  -8222080.56821        19.000           1.000
 91  5 23 23 12 14.9970000  0  4G 2G 6G13G12
  21760304.165     4700136.231 6   3651470.48721        15.750           1.000
  21143732.626     3244045.370 6   2538083.12021        16.750           1.281
  19274725.962   -13489267.119 7 -10420210.38421        27.750           1.250
  21538014.681   -10909846.290 6  -8263657.15221        19.250           1.063
 91  5 23 23 12 29.9970000  0  4G 2G 6G13G12
  21764739.337     4723433.435 6   3669624.10821        15.500           0.969
  21149880.376     3276367.146 6   2563268.85621        16.250           1.344
  19273617.884   -13495088.538 8 -10424746.55921        28.000           1.344
  21527879.868   -10963121.647 6  -8305170.39421        19.000           1.094
 91  5 23 23 12 44.9970000  0  4G 2G 6G13G12
  21769183.243     4746792.697 6   3687826.06121        16.000           1.094
  21156053.431     3308804.170 6   2588544.39521        16.500           1.281
  19272536.454   -13500768.981 7 -10429172.89021        27.500           1.250
  21517753.095   -11016323.605 6  -8346626.43121        19.000           1.156
 91  5 23 23 12 59.9970000  0  4G 2G 6G13G12
  21773641.915     4770214.606 6   3706076.85621        16.250           1.094
  21162247.642     3341356.780 6   2613910.01521        16.000           1.344
  19271482.235   -13506308.301 8 -10433489.25221        28.000           1.313
  21507644.704   -11069451.317 6  -8388024.61421        19.000           1.125
 91  5 23 23 13 14.9970000  0  4G 2G 6G13G12
  21778106.501     4793700.388 6   3724377.42021        14.750           1.063
  21168466.962     3374026.083 6   2639366.54121        16.750           1.219
  19270452.751   -13511705.214 7 -10437694.64621        27.250           1.281
  21497547.618   -11122503.121 6  -8429363.65521        19.000           1.031
 91  5 23 23 13 29.9970000  0  4G 2G 6G13G12
  21782591.360     4817256.425 6   3742732.70521        15.000           0.906
  21174705.665     3406818.262 6   2664918.82721        16.500           1.188
  19269455.688   -13516953.515 8 -10441784.23821        28.000           1.313
  21487468.845   -11175472.296 6  -8470638.30721        19.000           1.031
 91  5 23 23 13 44.9970000  0  4G 2G 6G13G12
  21787088.274     4840882.653 6   3761142.71021        16.250           0.875
  21180969.790     3439733.117 6   2690566.69421        16.000           1.094
  19268484.970   -13522053.278 7 -10445758.08821        27.750           1.313
  21477407.860   -11228358.495 6  -8511848.30121        19.250           1.125
 91  5 23 23 13 59.9970000  0  4G 2G 6G13G12
  21791593.392     4864573.188 6   3779602.82221        15.000           0.969
  21187253.048     3472764.286 6   2716305.21421        16.250           1.156
  19267542.657   -13527011.025 8 -10449621.28121        28.250           1.469
  21467353.540   -11281167.435 6  -8552998.08921        18.000           1.063
 91  5 23 23 14 14.9970000  0  4G 2G 6G13G12
  21796118.610     4888322.747 6   3798108.91821        16.500           0.969
  21193558.923     3505906.480 6   2742130.25021        15.750           1.125
  19266625.821   -13531831.909 8 -10453377.81921        28.000           1.469
  21457324.431   -11333904.014 6  -8594091.49321        19.000           1.125
 91  5 23 23 14 29.9970000  0  4G 2G 6G13G12
  21800648.485     4912139.467 6   3816667.35721        16.250           0.875
  21199891.282     3539167.745 6   2768048.06021        17.000           1.188
  19265734.978   -13536508.193 7 -10457021.69421        27.250           1.313
  21447301.274   -11386559.756 6  -8635121.90621        18.750           1.125
 91  5 23 23 14 44.9970000  0  4G 2G 6G13G12
  21805190.556     4936022.254 6   3835277.28021        16.000           0.938
  21206242.837     3572546.651 6   2794057.52821        16.000           1.156
  19264871.735   -13541041.091 7 -10460553.82621        27.750           1.438
  21437297.087   -11439135.419 6  -8676089.93521        19.000           1.188
 91  5 23 23 14 59.9970000  0  4G 2G 6G13G12
  21809748.548     4959967.152 6   3853935.58121        16.000           0.969
  21212614.587     3606039.216 6   2820155.57721        15.750           1.125
  19264036.134   -13545434.667 7 -10463977.40221        27.500           1.406
  21427304.821   -11491634.536 6  -8716998.30221        18.750           1.188
 91  5 23 23 15 14.9970000  0  4G 2G 6G13G12
  21814322.220     4983977.420 6   3872644.83721        16.500           0.938
  21219011.485     3639648.532 6   2846344.58521        15.500           1.281
  19263226.954   -13549685.775 7 -10467289.96021        26.750           1.281
  21417331.478   -11544053.315 6  -8757844.06321        19.500           1.250
 91  5 23 23 15 29.9970000  0  4G 2G 6G13G12
  21818899.735     5008055.999 6   3891407.32221        15.250           1.125
  21225431.399     3673377.361 6   2872626.72721        16.000           1.188
  19262444.993   -13553791.715 7 -10470489.40721        27.000           1.375
  21407373.329   -11596388.465 6  -8798624.67521        19.500           1.063
 91  5 23 23 15 44.9970000  0  4G 2G 6G13G12
  21823494.931     5032198.145 6   3910219.31121        15.250           1.031
  21231870.142     3707220.635 6   2898998.05421        15.750           1.219
  19261690.353   -13557757.380 7 -10473579.54821        27.250           1.250
  21397426.603   -11648644.517 6  -8839343.64321        18.750           1.188
 91  5 23 23 15 59.9970000  0  4G 2G 6G13G12
  21828100.462     5056401.322 6   3929078.89021        15.250           0.969
  21238331.618     3741175.652 6   2925456.44021        15.250           1.094
  19260962.392   -13561585.643 7 -10476562.62321        27.250           1.313
  21387493.876   -11700823.804 6  -8880002.79421        18.250           1.156
 91  5 23 23 16 14.9970000  0  4G 2G 6G13G12
  21832719.938     5080666.545 6   3947986.80621        14.750           1.031
  21244813.563     3775243.181 6   2952002.50121        15.250           1.031
  19260260.743   -13565275.541 7 -10479437.87821        27.250           1.375
  21377583.501   -11752924.831 6  -8920600.96221        19.500           1.250
 91  5 23 23 16 29.9970000  0  4G 2G 6G13G12
  21837344.478     5104992.172 6   3966941.77421        14.000           1.063
  21251317.540     3809421.337 6   2978634.77921        14.750           1.031
  19259584.470   -13568828.937 7 -10482206.76521        27.500           1.281
  21367686.946   -11804948.920 7  -8961139.18221        20.500           1.219
 91  5 23 23 16 44.9960000  0  4G 2G 6G13G12
  21841985.316     5129375.527 6   3985941.73921        14.500           1.031
  21257842.066     3843706.843 6   3005350.68321        15.250           1.094
  19258932.770   -13572246.773 7 -10484870.02321        27.500           1.344
  21357796.902   -11856893.319 6  -9001615.30721        18.750           1.125
 91  5 23 23 16 59.9960000  0  4G 2G 6G13G12
  21846639.129     5153822.237 6   4004991.06421        15.000           0.781
  21264390.020     3878106.326 6   3032155.41221        15.750           1.031
  19258310.262   -13575527.424 7 -10487426.38321        27.500           1.281
  21347930.723   -11908762.200 6  -9042032.58921        19.250           1.219
 91  5 23 23 17 14.9960000  0  4G 2G 6G13G12
  21851302.090     5178326.436 6   4024085.20621        15.250           0.781
  21270955.676     3912612.895 6   3059043.60121        15.250           1.031
  19257711.160   -13578675.099 7 -10489879.12521        27.500           1.344
  21338074.277   -11960556.133 6  -9082391.45721        19.500           1.219
 91  5 23 23 17 29.9960000  0  4G 2G 6G13G12
  21855977.629     5202894.480 6   4043229.08221        15.750           0.813
  21277542.316     3947232.843 6   3086020.11721        15.500           1.031
  19257137.270   -13581683.475 7 -10492223.31821        27.250           1.375
  21328232.176   -12012268.397 6  -9122686.70221        19.750           1.094
 91  5 23 23 17 44.9960000  0  4G 2G 6G13G12
  21860664.191     5227527.203 6   4062423.37421        15.500           0.750
  21284152.926     3981966.630 6   3113085.33221        15.000           0.969
  19256593.543   -13584552.022 7 -10494458.56321        27.500           1.375
  21318409.152   -12063897.840 6  -9162917.40721        19.750           1.188
 91  5 23 23 17 59.9960000  0  4G 2G 6G13G12
  21865363.840     5252227.476 6   4081670.29721        15.250           0.813
  21290783.496     4016817.284 6   3140241.61921        14.750           0.938
  19256072.973   -13587278.215 7 -10496582.87921        27.250           1.375
  21308597.082   -12115440.993 6  -9203080.87821        19.500           1.156
 91  5 23 23 18 14.9960000  0  4G 2G 6G13G12
  21870075.645     5276991.966 6   4100967.24821        15.250           0.750
  21297437.012     4051781.132 6   3167486.10121        15.000           0.938
  19255582.207   -13589865.510 7 -10498598.95921        27.000           1.313
  21298805.668   -12166900.838 7  -9243179.42821        20.250           1.219
 91  5 23 23 18 29.9960000  0  4G 2G 6G13G12
  21874806.520     5301822.496 6   4120315.66921        15.750           0.688
  21304116.035     4086859.729 6   3194820.01821        15.750           0.938
  19255115.863   -13592312.105 7 -10500505.40621        26.500           1.438
  21289031.301   -12218275.309 7  -9283211.46021        20.250           1.188
 91  5 23 23 18 44.9960000  0  4G 2G 6G13G12
  21879537.941     5326713.022 6   4139710.83621        14.250           0.875
  21310811.168     4122046.711 6   3222238.36821        15.500           0.938
  19254675.738   -13594624.578 7 -10502307.35021        26.750           1.375
  21279270.863   -12269570.432 7  -9323181.64721        21.000           1.188
 91  5 23 23 18 59.9960000  0  4G 2G 6G13G12
  21884286.707     5351663.715 6   4159152.86821        14.500           0.844
  21317523.926     4157342.237 6   3249741.31621        14.000           0.938
  19254260.332   -13596802.653 7 -10504004.55521        26.750           1.438
  21269522.090   -12320785.236 7  -9363089.26321        21.250           1.094
 91  5 23 23 19 14.9960000  0  4G 2G 6G13G12
  21889045.754     5376671.217 6   4178639.17921        14.500           0.875
  21324263.285     4192742.705 6   3277326.03521        15.500           0.906
  19253871.637   -13598850.082 7 -10505599.96122        26.500           1.594
  21259792.598   -12371922.856 7  -9402936.74121        21.000           1.219
 91  5 23 23 19 29.9960000  0  4G 2G 6G13G12
  21893813.637     5401748.629 6   4198179.95721        14.000           0.969
  21331021.684     4228260.918 6   3305002.50521        15.000           1.000
  19253508.996   -13600753.842 7 -10507083.41822        26.500           1.594
  21250077.762   -12422969.900 7  -9442713.61721        20.750           1.156
 91  5 23 23 19 44.9960000  0  4G 2G 6G13G12
  21898604.207     5426887.297 6   4217768.46421        15.500           0.969
  21337800.895     4263888.283 6   3332764.00621        14.750           1.031
  19253173.168   -13602522.744 7 -10508461.79722        26.750           1.563
  21240377.645   -12473934.458 7  -9482426.24421        21.000           1.188
 91  5 23 23 19 59.9960000  0  4G 2G 6G13G12
  21903397.918     5452091.130 6   4237407.76321        15.250           0.906
  21344600.652     4299628.427 6   3360613.40921        14.750           1.094
  19252863.684   -13604153.077 7 -10509732.19422        26.750           1.531
  21230699.707   -12524812.196 7  -9522071.20521        21.750           1.188
 91  5 23 23 20 14.9960000  0  4G 2G 6G13G12
  21908204.176     5477350.417 6   4257090.25821        14.750           1.031
  21351422.121     4335471.347 6   3388542.89621        14.750           1.063
  19252577.035   -13605654.694 7 -10510902.29822        27.000           1.531
  21221030.191   -12575612.718 7  -9561656.00921        21.500           1.250
 91  5 23 23 20 29.9960000  0  4G 2G 6G13G12
  21913025.715     5502672.733 6   4276821.88621        15.750           0.938
  21358262.535     4371424.292 6   3416558.11221        14.500           1.063
  19252316.731   -13607020.398 7 -10511966.49122        26.750           1.563
  21211379.512   -12626328.161 7  -9601174.50721        21.750           1.219
 91  5 23 23 20 44.9960000  0  4G 2G 6G13G12
  21917855.121     5528055.530 6   4296600.63021        16.000           0.813
  21365125.145     4407484.784 6   3444657.14121        14.750           1.156
  19252083.387   -13608252.808 7 -10512926.81822        26.750           1.500
  21201744.379   -12676960.500 7  -9640628.25121        21.250           1.125
 91  5 23 23 20 59.9960000  0  4G 2G 6G13G12
  21922696.816     5553498.513 6   4316426.28421        15.250           0.813
  21372011.590     4443652.133 6   3472839.40821        15.250           1.000
  19251873.387   -13609352.585 7 -10513783.79722        26.750           1.625
  21192128.184   -12727509.844 7  -9680017.32721        21.500           1.125
 91  5 23 23 21 14.9960000  0  4G 2G 6G13G12
  21927550.238     5579000.510 6   4336297.90621        15.500           0.656
  21378910.270     4479925.053 6   3501103.96621        15.000           1.094
  19251690.301   -13610320.967 7 -10514538.39022        26.750           1.625
  21182523.027   -12777976.904 7  -9719342.27621        21.500           1.250
 91  5 23 23 21 29.9960000  0  4G 2G 6G13G12
  21932413.262     5604562.564 6   4356216.35121        14.250           0.781
  21385835.738     4516304.278 6   3529451.34821        15.250           1.031
  19251529.856   -13611157.323 7 -10515190.10322        26.500           1.500
  21172934.309   -12828360.350 7  -9758602.08221        21.750           1.156
 91  5 23 23 21 44.9960000  0  4G 2G 6G13G12
  21937284.723     5630190.258 6   4376185.90821        13.250           0.750
  21392778.910     4552795.317 6   3557885.85721        15.500           0.938
  19251397.004   -13611856.050 7 -10515734.57622        26.500           1.531
  21163360.887   -12878654.051 7  -9797791.95621        21.250           1.188
 91  5 23 23 21 59.9960000  0  4G 2G 6G13G12
  21942177.356     5655882.293 6   4396205.62821        13.000           0.813
  21399745.043     4589396.666 6   3586406.32321        16.250           1.031
  19251289.277   -13612418.663 7 -10516172.97922        26.250           1.500
  21153811.559   -12928859.063 7  -9836912.71621        22.250           1.219
 91  5 23 23 22 14.9960000  0  4G 2G 6G13G12
  21947080.152     5681637.326 6   4416274.41321        13.250           0.844
  21406728.934     4626106.671 6   3615011.45121        15.500           0.875
  19251209.449   -13612846.670 7 -10516506.50522        26.000           1.500
  21144277.051   -12978976.345 7  -9875965.11821        22.750           1.156
 91  5 23 23 22 29.9960000  0  4G 2G 6G13G12
  21951992.082     5707449.146 6   4436387.45721        13.000           0.813
  21413732.731     4662918.975 6   3643696.30521        15.750           0.969
  19251150.223   -13613146.617 7 -10516740.24122        26.500           1.500
  21134751.535   -13029011.736 7  -9914953.71021        22.250           1.281
 91  5 23 23 22 44.9960000  0  4G 2G 6G13G12
  21956915.941     5733318.047 6   4456544.96621        12.750           0.813
  21420759.863     4699833.488 6   3672460.78921        15.750           0.875
  19251116.895   -13613318.413 7                        26.500
  21125246.559   -13078964.782 7  -9953878.14521        21.750           1.281
 91  5 23 23 22 59.9960000  0  4G 2G 6G13G12
  21961850.551     5759253.494 6   4476754.33621        13.250           0.813
  21427805.715     4736859.630 6   3701312.26721        15.500           1.094
  19251110.410   -13613352.818 7                        26.250
  21115758.832   -13128825.609 7  -9992730.70221        22.500           1.219
 91  5 23 23 23 14.9960000  0  4G 2G 6G13G12
  21966796.824     5785254.986 6   4497015.16921        13.000           0.719
  21434873.426     4773996.703 6   3730250.15121        15.750           0.969
  19251132.199   -13613250.395 7                        26.500
  21106288.621   -13178594.130 7 -10031511.35521        22.500           1.188
 91  5 23 23 23 29.9960000  0  4G 2G 6G13G12
  21971753.598     5811315.024 6   4517321.63221        13.250           0.813
  21441959.566     4811236.930 6   3759268.46221        15.250           0.969
  19251177.113   -13613018.907 7                        27.250
  21096833.012   -13228277.549 7 -10070225.67321        21.750           1.281
 91  5 23 23 23 44.9960000  0  4G 2G 6G13G12
  21976727.848     5837431.792 6   4537672.29121        14.500           0.875
  21449065.098     4848578.537 6   3788365.74021        14.750           0.875
  19251244.418   -13612660.194 7                        27.000
  21087393.332   -13277877.134 7 -10108874.68321        21.250           1.313
 91  5 23 23 23 59.9960000  0  4G 2G 6G13G12
  21981709.262     5863608.742 6   4558069.85521        13.750           0.781
  21456190.559     4886024.638 6   3817544.44021        14.500           0.875
  19251335.777   -13612170.895 8 -10515979.98322        28.000           1.625
  21077968.645   -13327389.343 7 -10147455.60121        21.000           1.281
 91  5 23 23 24 14.9960000  0  4G 2G 6G13G12
  21986702.066     5889846.385 6   4578514.68521        14.500           0.813
  21463337.551     4923575.370 6   3846804.68921        14.500           0.781
  19251455.941   -13611551.072 7 -10515497.01822        27.250           1.719
  21068567.535   -13376813.366 7 -10185967.81321        21.500           1.219
 91  5 23 23 24 29.9960000  0  4G 2G 6G13G12
  21991705.223     5916142.161 6   4599004.84721        14.000           0.750
  21470502.301     4961228.180 6   3876144.48021        14.750           0.750
  19251596.543   -13610803.370 7 -10514914.39622        27.000           1.688
  21059179.395   -13426151.256 7 -10224412.90521        21.500           1.313
 91  5 23 23 24 44.9960000  0  4G 2G 6G13G12
  21996720.207     5942498.250 6   4619541.98521        14.000           0.688
  21477685.629     4998984.857 6   3905565.19221        15.000           0.906
  19251763.090   -13609925.820 7 -10514230.60322        26.500           1.781
  21049807.348   -13475400.662 7 -10262789.03621        21.750           1.313
 91  5 23 23 24 59.9960000  0  4G 2G 6G13G12
  22001746.621     5968911.171 6   4640123.41621        14.750           0.656
  21484888.988     5036841.671 6   3935063.94821        14.500           0.719
  19251953.020   -13608922.226 7 -10513448.58522        26.000           1.750
  21040448.606   -13524564.484 7 -10301098.48521        21.750           1.313
 91  5 23 23 25 14.9960000  0  4G 2G 6G13G12
  22006780.465     5995380.777 6   4660749.01721        13.750           0.594
  21492114.356     5074798.461 6   3964640.59621        14.250           0.781
  19252170.551   -13607793.009 7 -10512568.68622        26.750           1.719
  21031112.020   -13573642.463 7 -10339341.05421        21.750           1.250
 91  5 23 23 25 29.9960000  0  4G 2G 6G13G12
  22011832.395     6021905.247 6   4681417.38021        13.750           0.625
  21499356.199     5112853.110 6   3994293.47921        14.250           0.750
  19252408.207   -13606540.232 7 -10511592.50222        26.250           1.719
  21021789.363   -13622636.119 7 -10377517.89721        21.750           1.406
 91  5 23 23 25 44.9960000  0  4G 2G 6G13G12
  22016890.934     6048485.599 6   4702129.27121        14.000           0.625
  21506616.012     5151006.232 6   4024023.12821        14.000           0.781
  19252669.973   -13605163.025 7 -10510519.36722        26.000           1.750
  21012479.871   -13671544.138 7 -10415628.02021        21.500           1.375
 91  5 23 23 25 59.9960000  0  4G 2G 6G13G12
  22021957.262     6075123.642 6   4722886.11521        13.750           0.656
  21513893.699     5189259.562 6   4053830.83521        13.250           0.656
  19252957.988   -13603659.669 7 -10509347.93022        26.500           1.813
  21003192.246   -13720364.379 7 -10453669.75321        22.000           1.375
 91  5 23 23 26 14.9960000  0  4G 2G 6G13G12
  22027040.785     6101817.275 6   4743686.29621        14.250           0.594
  21521196.090     5227610.835 6   4083714.86321        14.250           0.719
  19253266.887   -13602032.321 7 -10508079.87622        26.250           1.750
  20993916.566   -13769098.425 7 -10491644.30521        22.000           1.469
 91  5 23 23 26 29.9960000  0  4G 2G 6G13G12
  22032129.559     6128558.747 6   4764523.73121        14.000           0.719
  21528510.113     5266052.218 6   4113669.12321        14.000           0.688
  19253597.277   -13600288.992 7 -10506721.44622        26.000           1.719
  20984657.316   -13817753.654 7 -10529557.45021        21.500           1.469
 91  5 23 23 26 44.9960000  0  4G 2G 6G13G12
  22037227.590     6155362.512 6   4785409.70121        13.750           0.750
  21535841.863     5304597.669 6   4143704.46921        13.500           0.750
  19253954.520   -13598415.441 7 -10505261.54722        26.750           1.719
  20975417.988   -13866315.357 7 -10567397.71321        22.500           1.469
 91  5 23 23 26 59.9960000  0  4G 2G 6G13G12
  22042338.012     6182221.079 6   4806338.39821        13.500           0.750
  21543195.434     5343239.636 6   4173815.01221        13.750           0.625
  19254333.684   -13596419.652 7 -10503706.39522        26.500           1.781
  20966190.715   -13914790.672 7 -10605170.66121        22.000           1.438
 91  5 23 23 27 14.9960000  0  4G 2G 6G13G12
  22047459.402     6209135.844 6   4827310.87021        13.250           0.781
  21550568.356     5381979.236 6   4204001.64921        14.250           0.594
  19254736.957   -13594300.185 7 -10502054.87022        27.750           1.844
  20956985.199   -13963177.692 7 -10642874.80821        22.000           1.438
 91  5 23 23 27 29.9960000  0  4G 2G 6G13G12
  22052591.270     6236106.467 6   4848326.87421        12.500           0.875
  21557959.121     5420815.982 6   4234264.00921        13.250           0.656
  19255164.254   -13592057.926 8 -10500307.65522        28.250           1.750
  20947795.668   -14011476.539 7 -10680510.23621        22.500           1.406
 91  5 23 23 27 44.9960000  0  4G 2G 6G13G12
  22057731.895     6263128.050 6   4869382.57921        12.500           0.906
  21565364.770     5459744.723 6   4264598.00521        12.750           0.781
  19255612.387   -13589697.609 8 -10498468.45522        28.250           1.656
  20938618.152   -14059691.807 7 -10718080.55422        22.000           1.531
 91  5 23 23 27 59.9960000  0  4G 2G 6G13G12
  22062889.754     6290208.563 6   4890484.19821        12.250           0.906
  21572794.473     5498773.216 6   4295009.72821        14.000           0.750
  19256088.254   -13587211.646 8 -10496531.34522        28.500           1.750
  20929461.129   -14107815.020 7 -10755579.12822        22.000           1.563
 91  5 23 23 28 14.9960000  0  4G 2G 6G13G12
  22068049.941     6317340.109 5   4911625.58921        11.250           0.906
  21580237.059     5537893.263 6   4325492.81721        13.250           0.750
  19256582.371   -13584608.106 8 -10494502.61622        28.750           1.688
  20920319.863   -14155853.720 7 -10793011.85021        21.750           1.469
 91  5 23 23 28 29.9960000  0  4G 2G 6G13G12
  22073223.199     6344530.634 5   4932812.94021        10.750           0.938
  21587699.504     5577112.756 6   4356053.37421        13.750           0.688
  19257101.981   -13581879.069 8 -10492376.10322        28.500           1.813
  20911197.606   -14203799.522 7 -10830372.18322        23.000           1.594
 91  5 23 23 28 44.9960000  0  4G 2G 6G13G12
  22078409.879     6371778.760 5   4954045.16621        10.500           0.938
  21595183.152     5616429.750 6   4386689.93221        14.000           0.719
  19257644.270   -13579026.558 8 -10490153.37522        28.250           1.781
  20902087.606   -14251653.672 7 -10867661.10621        21.750           1.469
 91  5 23 23 28 59.9960000  0  4G 2G 6G13G12
  22083602.793     6399079.721 5   4975318.56221        10.000           0.938
  21602686.215     5655839.499 6   4417398.75021        14.250           0.719
  19258209.879   -13576055.320 8 -10487838.13122        28.250           1.813
  20893000.231   -14299420.516 7 -10904881.98422        21.750           1.500
 91  5 23 23 29 14.9960000  0  4G 2G 6G13G12
  22088812.035     6426440.439 5   4996638.50921        10.750           0.844
  21610199.824     5695348.779 6   4448185.12321        14.250           0.656
  19258799.488   -13572958.751 8 -10485425.23022        28.000           1.750
  20883930.363   -14347092.551 7 -10942028.98821        22.750           1.469
 91  5 23 23 29 29.9960000  0  4G 2G 6G13G12
  22094036.176     6453855.435 6   5018000.77121        12.000           0.875
  21617739.504     5734951.762 6   4479044.53921        13.750           0.719
  19259412.309   -13569742.569 8 -10482919.12022        28.250           1.750
  20874875.199   -14394675.034 7 -10979106.21822        22.000           1.531
 91  5 23 23 29 44.9960000  0  4G 2G 6G13G12
  22099260.699     6481327.576 6   5039407.56521        12.250           0.906
  21625292.981     5774651.084 6   4509979.00521        13.000           0.594
  19260045.941   -13566403.987 8 -10480317.63722        28.000           1.750
  20865836.559   -14442164.870 7 -11016111.24622        21.750           1.594
 91  5 23 23 29 59.9960000  0  4G 2G 6G13G12
  22104496.035     6508853.663 6   5060856.39621        12.250           0.750
  21632865.731     5814443.325 6   4540985.86821        13.750           0.688
  19260704.441   -13562946.479 8 -10477623.48222        28.000           1.781
  20856817.395   -14489564.754 7 -11053046.17622        22.500           1.531
 91  5 23 23 30 14.9960000  0  4G 2G 6G13G12
  22109743.613     6536429.018 6   5082343.61121        13.000           0.750
  21640452.184     5854323.544 6   4572061.29521        13.000           0.750
  19261383.356   -13559375.142 7 -10474840.63222        27.750           1.656
  20847815.098   -14536879.093 7 -11089914.47022        22.000           1.531
 91  5 23 23 30 29.9960000  0  4G 2G 6G13G12
  22115001.356     6564058.209 6   5103872.78421        13.000           0.656
  21648055.418     5894296.174 6   4603208.72321        12.250           0.688
  19262087.551   -13555685.338 8 -10471965.46122        28.500           1.719
  20838827.481   -14584102.834 7 -11126712.14522        22.000           1.656
 91  5 23 23 30 44.9960000  0  4G 2G 6G13G12
  22120267.895     6591740.675 6   5125443.47321        14.000           0.781
  21655682.410     5934360.475 6   4634427.57921        12.250           0.719
  19262812.981   -13551877.799 8 -10468998.55422        28.500           1.844
  20829857.035   -14631236.078 7 -11163439.31622        22.500           1.750
 91  5 23 23 30 59.9960000  0  4G 2G 6G13G12
  22125547.746     6619475.093 6   5147054.65721        14.500           0.688
  21663322.801     5974514.856 6   4665716.63421        12.250           0.781
  19263558.121   -13547954.291 8 -10465941.28422        28.000           1.688
  20820906.379   -14678279.853 7 -11200096.76222        22.250           1.594
 91  5 23 23 31 14.9960000  0  4G 2G 6G13G12
  22130833.981     6647254.497 6   5168700.88121        13.750           0.719
  21670982.348     6014751.872 6   4697070.07621        13.250           0.719
  19264324.887   -13543922.012 7 -10462799.25222        27.750           1.688
  20811968.262   -14725240.891 7 -11236689.74522        21.750           1.500
 91  5 23 23 31 29.9960000  0  4G 2G 6G13G12
  22136130.207     6675086.058 6   5190387.72821        14.250           0.844
  21678655.824     6055078.882 6   4728493.65921        12.500           0.688
  19265115.059   -13539773.833 8 -10459566.91622        28.500           1.875
  20803049.824   -14772111.499 7 -11273212.25922        22.500           1.625
 91  5 23 23 31 44.9960000  0  4G 2G 6G13G12
  22141433.027     6702971.149 6   5212116.29821        13.750           0.625
  21686346.340     6095496.791 6   4759988.05821        12.000           0.781
  19265925.457   -13535508.733 8 -10456243.46522        28.000           1.906
  20794148.957   -14818889.990 7 -11309662.99922        22.750           1.625
 91  5 23 23 31 59.9960000  0  4G 2G 6G13G12
  22146754.621     6730906.568 6   5233884.11521        13.750           0.656
  21694054.738     6136002.259 6   4791550.67521        12.750           0.781
  19266759.301   -13531130.023 7 -10452831.48822        27.750           1.656
  20785264.473   -14865579.074 7 -11346044.05722        22.750           1.656
 91  5 23 23 32 14.9960000  0  4G 2G 6G13G12
  22152074.621     6758892.635 6   5255691.36221        13.000           0.625
  21701775.816     6176595.339 6   4823181.56321        12.000           0.594
  19267612.457   -13526637.600 7 -10449330.91122        27.500           1.719
  20776395.535   -14912178.143 7 -11382354.99222        23.000           1.625
 91  5 23 23 32 29.9960000  0  4G 2G 6G13G12
  22157413.934     6786934.347 6   5277541.98021        12.750           0.719
  21709521.254     6217280.856 5   4854884.49321        11.750           0.688
  19268490.856   -13522026.896 7 -10445738.16322        27.250           1.719
  20767547.848   -14958681.757 7 -11418591.54022        22.750           1.594
 91  5 23 23 32 44.9960000  0  4G 2G 6G13G12
  22162758.340     6815027.577 6   5299432.74621        12.250           0.688
  21717283.223     6258054.563 6   4886656.13021        12.750           0.625
  19269390.871   -13517302.261 7 -10442056.63322        27.250           1.844
  20758714.215   -15005093.761 7 -11454756.69522        23.000           1.625
 91  5 23 23 32 59.9960000  0  4G 2G 6G13G12
  22168113.340     6843170.382 6   5321362.13221        12.000           0.688
  21725057.051     6298914.063 6   4918494.63221        13.000           0.594
  19270311.402   -13512465.611 7 -10438287.82022        27.750           1.719
  20749902.348   -15051415.725 7 -11490851.70422        23.500           1.688
 91  5 23 23 33 14.9960000  0  4G 2G 6G13G12
  22173476.387     6871363.228 5   5343330.51121        11.000           0.563
  21732850.066     6339859.828 6   4950400.34921        13.000           0.719
  19271252.129   -13507516.553 7 -10434431.41822        27.250           1.688
  20741101.262   -15097646.688 7 -11526875.79522        23.000           1.750
 91  5 23 23 33 29.9960000  0  4G 2G 6G13G12
  22178853.262     6899604.039 5   5365336.26721        11.000           0.750
  21740655.879     6380889.322 6   4982371.29421        12.500           0.656
  19272215.504   -13502457.908 7 -10430489.62622        27.250           1.781
  20732321.957   -15143788.612 7 -11562830.50322        24.000           1.719
 91  5 23 23 33 44.9960000  0  4G 2G 6G13G12
  22184239.027     6927893.854 6   5387380.20021        12.000           0.688
  21748478.113     6422003.306 6   5014408.09221        13.250           0.656
  19273198.793   -13497288.574 7 -10426461.57622        27.000           1.844
  20723555.301   -15189840.025 7 -11598714.69422        23.000           1.656
 91  5 23 23 33 59.9960000  0  4G 2G 6G13G12
  22189627.496     6956232.751 5   5409462.39121        10.750           0.656
  21756320.332     6463201.750 6   5046510.70021        13.250           0.813
  19274202.793   -13492008.722 7 -10422347.40822        26.750           1.750
  20714814.996   -15235800.399 7 -11634527.93922        23.750           1.875
 91  5 23 23 34 14.9960000  0  4G 2G 6G13G12
  22195028.309     6984622.505 5   5431584.20321        10.250           0.656
  21764176.848     6504486.218 6   5078680.32321        13.250           0.656
  19275228.660   -13486616.854 7 -10418145.96422        27.250           1.781
  20706082.582   -15281667.612 7 -11670268.59022        22.750           1.719
 91  5 23 23 34 29.9960000  0  4G 2G 6G13G12
  22200445.691     7013058.095 5   5453741.72921        11.250           0.688
  21772048.824     6545851.478 6   5110912.90121        12.000           0.500
  19276278.051   -13481117.970 7 -10413861.11222        27.750           1.781
  20697374.879   -15327446.369 7 -11705940.31422        23.500           1.813
 91  5 23 23 34 44.9960000  0  4G 2G 6G13G12
  22205863.176     7041540.369 5   5475935.65321        11.750           0.625
  21779934.637     6587298.216 6   5143208.98421        12.750           0.625
  19277342.621   -13475511.475 7 -10409492.43022        27.250           1.844
  20688677.449   -15373135.234 7 -11741541.99622        22.750           1.875
 91  5 23 23 34 59.9960000  0  4G 2G 6G13G12
  22211290.285     7070069.576 5   5498166.12421        11.000           0.625
  21787836.848     6628826.411 6   5175568.52721        13.000           0.594
  19278430.738   -13469797.469 7 -10405039.95822        27.250           1.875
  20680003.356   -15418733.647 7 -11777073.19422        23.750           1.813
 91  5 23 23 35 14.9960000  0  4G 2G 6G13G12
  22216728.301     7098648.917 5   5520435.65521        11.000           0.625
  21795758.598     6670438.995 6   5207993.84221        13.000           0.813
  19279536.981   -13463973.013 7 -10400501.42422        26.750           1.813
  20671342.051   -15464237.990 7 -11812531.09222        23.500           1.813
 91  5 23 23 35 29.9960000  0  4G 2G 6G13G12
  22222178.457     7127272.688 5   5542739.84421        11.250           0.625
  21803691.145     6712130.086 6   5240480.30521        12.500           0.625
  19280667.902   -13458043.989 7 -10395881.40622        27.000           1.906
  20662700.551   -15509653.686 7 -11847919.92122        23.000           1.844
 91  5 23 23 35 44.9960000  0  4G 2G 6G13G12
  22227630.848     7155937.224 5   5565075.77821        11.750           0.531
  21811637.106     6753895.429 6   5273024.66821        12.000           0.625
  19281814.098   -13452014.650 7 -10391183.22922        27.000           2.031
  20654073.934   -15554984.317 7 -11883242.45922        23.500           1.813
 91  5 23 23 35 59.9960000  0  4G 2G 6G13G12
  22233101.387     7184649.311 6   5587448.76221        13.000           0.563
  21819598.816     6795741.816 5   5305632.17221        11.250           0.656
  19282983.090   -13445878.169 7 -10386401.55822        27.000           1.875
  20645463.723   -15600222.518 7 -11918492.97922        22.750           1.844
 91  5 23 23 36 14.9960000  0  4G 2G 6G13G12
  22238570.527     7213411.962 6   5609861.13621        12.000           0.625
  21827579.145     6837672.129 6   5338305.08121        12.000           0.750
  19284169.973   -13439631.527 7 -10381534.04722        26.750           2.031
  20636875.840   -15645364.695 7 -11953668.66822        23.500           1.844
 91  5 23 23 36 29.9960000  0  4G 2G 6G13G12
  22244046.856     7242212.816 5   5632303.29621        11.500           0.531
  21835573.512     6879673.719 5   5371033.51221        11.500           0.844
  19285376.527   -13433287.571 7 -10376590.71722        26.250           2.000
  20628301.606   -15690423.031 7 -11988779.02722        24.000           2.000
 91  5 23 23 36 44.9960000  0  4G 2G 6G13G12
  22249537.520     7271061.071 6   5654782.37321        12.250           0.531
  21843577.637     6921755.466 5   5403824.37021        11.000           0.875
  19286607.223   -13426837.217 7 -10371564.46422        27.250           1.969
  20619746.856   -15735387.985 7 -12023816.62422        24.000           1.938
 91  5 23 23 36 59.9960000  0  4G 2G 6G13G12
  22255039.801     7299952.798 6   5677295.33721        13.000           0.656
  21851607.606     6963913.282 5   5436674.53721        11.500           0.781
  19287850.379   -13420284.596 7 -10366458.53622        25.750           1.938
  20611204.793   -15780262.997 7 -12058784.13222        23.750           1.969
 91  5 23 23 37 14.9960000  0  4G 2G 6G13G12
  22260546.957     7328890.028 6   5699843.75521        13.000           0.688
  21859643.059     7006148.993 5   5469585.38621        11.750           0.781
  19289120.020   -13413628.035 7 -10361271.60722        25.750           1.875
  20602683.535   -15825045.787 7 -12093679.78422        24.000           1.938
 91  5 23 23 37 29.9960000  0  4G 2G 6G13G12
  22266059.879     7357866.469 6   5722422.72021        12.500           0.719
  21867688.863     7048456.013 5   5502551.81721        11.750           0.719
  19290402.426   -13406873.882 7 -10356008.63422        25.500           1.875
  20594178.043   -15869742.237 7 -12128508.15222        23.750           2.063
 91  5 23 23 37 44.9960000  0  4G 2G 6G13G12
  22271580.715     7386889.902 6   5745038.30721        12.500           0.656
  21875755.387     7090841.888 5   5535579.69921        11.750           0.750
  19291709.535   -13400014.702 7 -10350663.82322        25.750           1.969
  20585687.559   -15914344.329 7 -12163263.00522        23.750           2.000
 91  5 23 23 37 59.9960000  0  4G 2G 6G13G12
  22277110.645     7415952.755 6   5767684.59221        12.750           0.531
  21883833.606     7133298.846 5   5568662.95521        11.250           0.813
  19293032.652   -13393058.365 7 -10345243.30022        25.750           1.813
  20577219.606   -15958859.126 7 -12197949.83022        24.250           2.031
 91  5 23 23 38 14.9960000  0  4G 2G 6G13G12
  22282649.926     7445056.798 6   5790363.00421        12.500           0.563
  21891930.785     7175828.452 6   5601802.79821        12.500           0.656
  19294376.770   -13386003.033 7 -10339745.64222        26.500           1.813
  20568763.707   -16003284.387 7 -12232566.88622        24.000           2.094
 91  5 23 23 38 29.9960000  0  4G 2G 6G13G12
  22288197.629     7474199.383 6   5813071.41721        12.750           0.531
  21900036.754     7218427.788 6   5634997.03021        12.250           0.531
  19295735.754   -13378851.778 7 -10334173.23422        26.000           1.750
  20560329.254   -16047622.468 7 -12267116.01222        24.750           2.063
 91  5 23 23 38 44.9960000  0  4G 2G 6G13G12
  22293751.895     7503384.436 6   5835812.93821        12.500           0.406
  21908155.168     7261100.513 5   5668248.42821        11.500           0.500
  19297118.684   -13371601.047 7 -10328523.32222        26.750           1.719
  20551907.691   -16091869.094 7 -12301593.87222        24.500           2.063
 91  5 23 23 38 59.9960000  0  4G 2G 6G13G12
  22299311.684     7532608.758 6   5858585.09421        12.000           0.438
  21916289.074     7303843.195 6   5701554.32921        12.500           0.531
  19298515.121   -13364254.197 7 -10322798.50222        26.000           1.625
  20543504.324   -16136027.077 7 -12336002.66722        24.750           2.094
 91  5 23 23 39 14.9960000  0  4G 2G 6G13G12
  22304883.387     7561872.123 5   5881387.62421        11.750           0.469
  21924435.949     7346655.273 5   5734914.31521        11.750           0.500
  19299930.621   -13356811.747 7 -10316999.19422        26.500           1.750
  20535118.746   -16180096.385 7 -12370342.36322        25.000           2.094
 91  5 23 23 39 29.9960000  0  4G 2G 6G13G12
  22310458.949     7591184.135 5   5904228.09421        11.250           0.313
  21932601.645     7389546.234 5   5768335.74921        11.750           0.594
  19301366.910   -13349264.188 7 -10311117.97522        26.000           1.688
  20526750.012   -16224066.926 7 -12404605.09422        25.000           2.156
 91  5 23 23 39 44.9960000  0  4G 2G 6G13G12
  22316043.293     7620536.672 5   5927100.15221        10.750           0.281
  21940773.902     7432507.830 5   5801812.21821        11.750           0.469
  19302821.918   -13341619.819 7 -10305161.33522        25.750           1.688
  20518403.941   -16267946.456 7 -12438796.91522        25.750           2.031
 91  5 23 23 39 59.9960000  0  4G 2G 6G13G12
  22321634.973     7649929.388 5   5950003.49821        10.000           0.313
  21948962.035     7475539.359 6   5835343.19521        12.000           0.531
  19304297.199   -13333879.093 7 -10299129.59422        26.000           1.750
  20510068.871   -16311734.807 7 -12472917.67722        25.000           2.125
 91  5 23 23 40 14.9960000  0  4G 2G 6G13G12
  22327241.254     7679365.168 5   5972940.39921        10.250           0.313
  21957165.426     7518643.530 6   5868930.76621        12.000           0.438
  19305783.879   -13326039.453 7 -10293020.79522        24.500           1.625
  20501752.137   -16355428.808 7 -12506964.92622        25.500           1.969
 91  5 23 23 40 29.9960000  0  4G 2G 6G13G12
  22332848.270     7708841.705 5   5995909.02821        10.250           0.250
  21965380.285     7561817.570 6   5902572.78121        12.000           0.469
  19307294.887   -13318103.828 7 -10286837.19022        25.000           1.688
  20493455.098   -16399030.649 7 -12540940.36222        25.750           1.969
 91  5 23 23 40 44.9960000  0  4G 2G 6G13G12
  22338462.723     7738352.219 5   6018904.17221         9.250           0.281
  21973610.410     7605054.510 5   5936263.82821        11.750           0.438
  19308823.254   -13310079.044 7 -10280584.11822        25.500           1.625
  20485177.902   -16442546.600 7 -12574848.86622        26.250           2.000
 91  5 23 23 40 59.9960000  0  4G 2G 6G13G12
  22344087.473     7767893.667 5   6041923.42121        10.000           0.219
  21981848.816     7648351.269 5   5970001.49121        11.000           0.500
  19310367.699   -13301968.058 7 -10274263.87522        26.250           1.688
  20476910.848   -16485979.160 7 -12608692.39022        25.750           1.906
 91  5 23 23 41 14.9960000  0  4G 2G 6G13G12
  22349718.301     7797478.945 5   6064976.81421         9.750           0.438
  21990101.316     7691720.438 5   6003795.55621        11.000           0.469
  19311928.793   -13293758.349 7 -10267866.70822        25.500           1.750
  20468664.910   -16529315.061 7 -12642460.60822        26.000           2.000
 91  5 23 23 41 29.9960000  0  4G 2G 6G13G12
  22355351.715     7827103.703 5   6088060.96921         9.750           0.375
  21998368.449     7735157.384 5   6037642.43621        10.250           0.500
  19313510.543   -13285454.600 7 -10261396.25722        26.250           1.750
  20460434.457   -16572558.442 7 -12676156.71622        25.750           1.938
 91  5 23 23 41 44.9960000  0  4G 2G 6G13G12
  22361000.371     7856765.284 5   6111173.81121        11.500           0.531
  22006643.137     7778659.315 5   6071539.91921        11.250           0.469
  19315105.254   -13277059.576 7 -10254854.68922        25.750           1.781
  20452223.090   -16615711.444 7 -12709782.40922        25.750           1.969
 91  5 23 23 41 59.9960000  0  4G 2G 6G13G12
  22366648.301     7886465.337 5   6134316.62621        11.250           0.438
  22014935.863     7822227.566 5   6105489.13821        11.500           0.406
  19316723.301   -13268571.931 7 -10248240.94322        25.750           1.719
  20444031.715   -16658772.052 7 -12743336.10322        26.000           1.938
 91  5 23 23 42 14.9960000  0  4G 2G 6G13G12
  22372306.816     7916204.959 5   6157490.29221        11.750           0.500
  22023238.965     7865862.941 5   6139490.65721        11.000           0.500
  19318354.582   -13259990.861 7 -10241554.39722        26.250           1.719
  20435852.629   -16701738.920 7 -12776816.76022        25.500           1.906
 91  5 23 23 42 29.9960000  0  4G 2G 6G13G12
  22377975.809     7945984.240 6   6180694.83621        12.250           0.500
  22031551.957     7909565.515 5   6173544.49121         9.500           0.594
  19320007.887   -13251316.364 7 -10234795.06222        26.750           1.844
  20427695.824   -16744611.454 7 -12810223.90422        25.500           1.906
 91  5 23 23 42 44.9960000  0  4G 2G 6G13G12
  22383648.832     7975808.771 6   6203934.66921        12.750           0.688
  22039887.137     7953340.459 5   6207654.74021        10.500           0.500
  19321674.504   -13242543.113 7 -10227958.77222        25.750           1.813
  20419556.551   -16787383.835 7 -12843553.00622        25.750           1.875
 91  5 23 23 42 59.9960000  0  4G 2G 6G13G12
  22389331.973     8005674.935 6   6227206.92421        12.750           0.750
  22048227.527     7997183.832 5   6241818.32421        11.750           0.469
  19323363.082   -13233674.901 7 -10221048.48422        25.250           1.844
  20411434.035   -16830059.200 7 -12876806.51522        25.250           1.969
 91  5 23 23 43 14.9960000  0  4G 2G 6G13G12
  22395028.098     8035585.555 6   6250513.81721        14.000           0.813
  22056587.941     8041098.145 5   6276037.20421        11.500           0.500
  19325068.176   -13224709.185 7 -10214062.22122        25.000           1.813
  20403334.027   -16872634.401 7 -12909981.96422        25.500           2.000
 91  5 23 23 43 29.9960000  0  4G 2G 6G13G12
  22400725.207     8065534.962 6   6273850.92821        14.750           0.750
  22064953.106     8085077.681 5   6310306.87421         9.750           0.656
  19326794.629   -13215651.743 7 -10207004.48022        25.500           1.813
  20395247.949   -16915114.718 7 -12943083.48822        25.000           1.969
 91  5 23 23 43 44.9960000  0  4G 2G 6G13G12
  22406434.262     8095524.006 6   6297218.95721        14.250           0.656
  22073338.387     8129123.130 5   6344627.90321        10.250           0.625
  19328533.387   -13206502.033 7 -10199874.83922        24.750           1.688
  20387183.113   -16957498.893 7 -12976110.08722        25.250           1.813
